Time,TemperatureF,DewpointF,PressureIn,WindDirection,WindDirectionDegrees,WindSpeedMPH,WindSpeedGustMPH,Humidity,HourlyPrecipIn,Conditions,Clouds,dailyrainin,SoftwareType,DateUTC
2013-06-15 00:00:00,52.3,48.7,30.09,North,353,1.5,8.7,88,0.00,,,0.00,WUHU21636XXSP,2013-06-15 07:00:00,
2013-06-15 00:01:00,52.3,48.7,30.09,North,0,1.1,8.7,88,0.00,,,0.00,WUHU21636XXSP,2013-06-15 07:01:00,
2013-06-15 00:02:00,52.3,48.7,30.09,North,0,1.1,8.7,88,0.00,,,0.00,WUHU21636XXSP,2013-06-15 07:02:00,
2013-06-15 00:03:00,52.3,48.7,30.09,NNE,22,0.0,8.7,88,0.00,,,0.00,WUHU21636XXSP,2013-06-15 07:03:00,
2013-06-15 00:05:00,52.3,48.7,30.09,East,90,0.0,8.7,88,0.00,,,0.00,WUHU21636XXSP,2013-06-15 07:05:00,
2013-06-15 00:07:00,52.2,48.6,30.09,NE,45,0.0,8.7,88,0.00,,,0.00,WUHU21636XXSP,2013-06-15 07:07:00,
2013-06-15 00:08:00,52.2,48.6,30.09,NE,45,0.0,1.1,88,0.00,,,0.00,WUHU21636XXSP,2013-06-15 07:08:00,
2013-06-15 00:11:00,52.2,48.6,30.09,North,0,0.0,0.0,88,0.00,,,0.00,WUHU21636XXSP,2013-06-15 07:11:00,
2013-06-15 00:12:00,52.2,48.6,30.09,North,0,0.0,0.0,88,0.00,,,0.00,WUHU21636XXSP,2013-06-15 07:12:00,
2013-06-15 00:13:00,52.2,48.6,30.09,NNE,22,0.0,0.0,88,0.00,,,0.00,WUHU21636XXSP,2013-06-15 07:13:00,
2013-06-15 00:14:00,52.2,48.6,30.09,NNE,22,0.0,0.0,88,0.00,,,0.00,WUHU21636XXSP,2013-06-15 07:14:00,
2013-06-15 00:16:00,52.2,48.6,30.09,NNW,337,3.3,3.3,88,0.00,,,0.00,WUHU21636XXSP,2013-06-15 07:16:00,
2013-06-15 00:17:00,52.2,48.6,30.08,NNW,337,3.3,3.3,88,0.00,,,0.00,WUHU21636XXSP,2013-06-15 07:17:00,
2013-06-15 00:19:00,52.2,48.6,30.08,NNW,337,3.3,3.3,88,0.00,,,0.00,WUHU21636XXSP,2013-06-15 07:19:00,
2013-06-15 00:21:00,52.2,48.9,30.08,NE,45,0.0,3.3,89,0.00,,,0.00,WUHU21636XXSP,2013-06-15 07:21:00,
2013-06-15 00:22:00,52.2,48.6,30.08,NNW,337,4.2,4.2,88,0.00,,,0.00,WUHU21636XXSP,2013-06-15 07:22:00,
2013-06-15 00:23:00,52.2,48.6,30.08,NNW,337,4.2,4.2,88,0.00,,,0.00,WUHU21636XXSP,2013-06-15 07:23:00,
2013-06-15 00:24:00,52.0,48.4,30.08,NNW,337,4.2,4.2,88,0.00,,,0.00,WUHU21636XXSP,2013-06-15 07:24:00,
2013-06-15 00:26:00,52.0,48.4,30.08,North,0,0.0,4.2,88,0.00,,,0.00,WUHU21636XXSP,2013-06-15 07:26:00,
2013-06-15 00:27:00,52.0,48.4,30.08,North,0,0.0,4.2,88,0.00,,,0.00,WUHU21636XXSP,2013-06-15 07:27:00,
2013-06-15 00:28:00,52.0,48.4,30.08,North,0,0.0,4.2,88,0.00,,,0.00,WUHU21636XXSP,2013-06-15 07:28:00,
2013-06-15 00:30:00,52.0,48.4,30.08,NNE,22,0.0,4.2,88,0.00,,,0.00,WUHU21636XXSP,2013-06-15 07:30:00,
2013-06-15 00:31:00,52.0,48.4,30.08,NNE,22,0.0,4.2,88,0.00,,,0.00,WUHU21636XXSP,2013-06-15 07:31:00,
2013-06-15 00:32:00,52.0,48.4,30.08,NNE,22,0.0,4.2,88,0.00,,,0.00,WUHU21636XXSP,2013-06-15 07:32:00,
2013-06-15 00:33:00,52.0,48.4,30.08,North,0,0.0,4.2,88,0.00,,,0.00,WUHU21636XXSP,2013-06-15 07:33:00,
2013-06-15 00:35:00,51.8,48.2,30.08,NE,45,0.0,0.0,88,0.00,,,0.00,WUHU21636XXSP,2013-06-15 07:35:00,
2013-06-15 00:36:00,51.8,48.2,30.08,NE,45,0.0,0.0,88,0.00,,,0.00,WUHU21636XXSP,2013-06-15 07:36:00,
2013-06-15 00:38:00,51.6,48.0,30.08,NE,45,0.0,0.0,88,0.00,,,0.00,WUHU21636XXSP,2013-06-15 07:38:00,
2013-06-15 00:40:00,51.6,48.0,30.08,NNE,22,0.0,0.0,88,0.00,,,0.00,WUHU21636XXSP,2013-06-15 07:40:00,
2013-06-15 00:41:00,51.6,48.0,30.08,NNE,22,0.0,0.0,88,0.00,,,0.00,WUHU21636XXSP,2013-06-15 07:41:00,
2013-06-15 00:43:00,51.6,48.0,30.08,NNE,22,0.0,0.0,88,0.00,,,0.00,WUHU21636XXSP,2013-06-15 07:43:00,
2013-06-15 00:46:00,51.6,48.0,30.08,NNE,22,0.0,0.0,88,0.00,,,0.00,WUHU21636XXSP,2013-06-15 07:46:00,
2013-06-15 00:48:00,51.6,48.0,30.07,NNE,22,0.0,0.0,88,0.00,,,0.00,WUHU21636XXSP,2013-06-15 07:48:00,
2013-06-15 00:51:00,51.4,47.8,30.07,North,0,2.0,2.0,88,0.00,,,0.00,WUHU21636XXSP,2013-06-15 07:51:00,
2013-06-15 00:53:00,51.4,48.1,30.07,North,0,2.2,2.2,89,0.00,,,0.00,WUHU21636XXSP,2013-06-15 07:53:00,
2013-06-15 00:56:00,51.4,48.1,30.07,NNE,22,3.1,3.1,89,0.00,,,0.00,WUHU21636XXSP,2013-06-15 07:56:00,
2013-06-15 00:58:00,51.4,48.1,30.07,NNE,22,3.1,3.1,89,0.00,,,0.00,WUHU21636XXSP,2013-06-15 07:58:00,
2013-06-15 01:02:00,51.4,48.1,30.07,North,0,0.0,3.1,89,0.00,,,0.00,WUHU21636XXSP,2013-06-15 08:02:00,
2013-06-15 01:03:00,51.4,48.1,30.07,North,0,0.0,3.1,89,0.00,,,0.00,WUHU21636XXSP,2013-06-15 08:03:00,
2013-06-15 01:04:00,51.4,48.1,30.07,North,0,0.0,3.1,89,0.00,,,0.00,WUHU21636XXSP,2013-06-15 08:04:00,
2013-06-15 01:07:00,51.4,48.1,30.07,North,0,0.0,0.0,89,0.00,,,0.00,WUHU21636XXSP,2013-06-15 08:07:00,
2013-06-15 01:08:00,51.4,48.1,30.07,NNE,22,2.9,2.9,89,0.00,,,0.00,WUHU21636XXSP,2013-06-15 08:08:00,
2013-06-15 01:09:00,51.4,48.1,30.07,NNE,22,2.9,2.9,89,0.00,,,0.00,WUHU21636XXSP,2013-06-15 08:09:00,
2013-06-15 01:12:00,51.4,48.1,30.06,North,0,0.0,2.9,89,0.00,,,0.00,WUHU21636XXSP,2013-06-15 08:12:00,
2013-06-15 01:13:00,51.4,48.1,30.06,North,0,0.0,2.9,89,0.00,,,0.00,WUHU21636XXSP,2013-06-15 08:13:00,
2013-06-15 01:14:00,51.4,48.1,30.06,North,0,0.0,2.9,89,0.00,,,0.00,WUHU21636XXSP,2013-06-15 08:14:00,
2013-06-15 01:17:00,51.3,47.7,30.06,North,0,0.8,2.9,88,0.00,,,0.00,WUHU21636XXSP,2013-06-15 08:17:00,
2013-06-15 01:18:00,51.1,47.5,30.06,North,0,0.8,2.9,88,0.00,,,0.00,WUHU21636XXSP,2013-06-15 08:18:00,
2013-06-15 01:19:00,51.1,47.5,30.06,North,0,0.8,2.9,88,0.00,,,0.00,WUHU21636XXSP,2013-06-15 08:19:00,
2013-06-15 01:22:00,51.1,47.8,30.06,North,0,4.4,4.4,89,0.00,,,0.00,WUHU21636XXSP,2013-06-15 08:22:00,
2013-06-15 01:23:00,51.1,47.8,30.06,North,0,4.4,4.4,89,0.00,,,0.00,WUHU21636XXSP,2013-06-15 08:23:00,
2013-06-15 01:24:00,51.1,47.8,30.06,North,0,4.4,4.4,89,0.00,,,0.00,WUHU21636XXSP,2013-06-15 08:24:00,
2013-06-15 01:27:00,51.1,47.8,30.06,North,0,0.0,4.4,89,0.00,,,0.00,WUHU21636XXSP,2013-06-15 08:27:00,
2013-06-15 01:28:00,51.1,47.8,30.06,North,0,0.0,4.4,89,0.00,,,0.00,WUHU21636XXSP,2013-06-15 08:28:00,
2013-06-15 01:29:00,51.1,47.8,30.06,North,0,0.0,4.4,89,0.00,,,0.00,WUHU21636XXSP,2013-06-15 08:29:00,
2013-06-15 01:32:00,50.9,47.6,30.05,North,0,0.0,0.0,89,0.00,,,0.00,WUHU21636XXSP,2013-06-15 08:32:00,
2013-06-15 01:33:00,50.9,47.6,30.05,North,0,0.8,0.8,89,0.00,,,0.00,WUHU21636XXSP,2013-06-15 08:33:00,
2013-06-15 01:34:00,50.9,47.6,30.05,North,0,0.8,0.8,89,0.00,,,0.00,WUHU21636XXSP,2013-06-15 08:34:00,
2013-06-15 01:35:00,50.9,47.6,30.05,North,0,0.8,0.8,89,0.00,,,0.00,WUHU21636XXSP,2013-06-15 08:35:00,
2013-06-15 01:37:00,50.7,47.4,30.05,North,0,0.0,0.8,89,0.00,,,0.00,WUHU21636XXSP,2013-06-15 08:37:00,
2013-06-15 01:39:00,50.7,47.4,30.05,North,0,0.0,0.8,89,0.00,,,0.00,WUHU21636XXSP,2013-06-15 08:39:00,
2013-06-15 01:40:00,50.7,47.4,30.05,North,0,4.2,4.2,89,0.00,,,0.00,WUHU21636XXSP,2013-06-15 08:40:00,
2013-06-15 01:43:00,50.9,47.6,30.05,North,0,4.2,4.2,89,0.00,,,0.00,WUHU21636XXSP,2013-06-15 08:43:00,
2013-06-15 01:44:00,50.7,47.4,30.05,NNW,337,0.0,4.2,89,0.00,,,0.00,WUHU21636XXSP,2013-06-15 08:44:00,
2013-06-15 01:45:00,50.7,47.4,30.05,NNW,337,0.0,4.2,89,0.00,,,0.00,WUHU21636XXSP,2013-06-15 08:45:00,
2013-06-15 01:48:00,50.5,47.2,30.05,NNW,337,0.0,4.2,89,0.00,,,0.00,WUHU21636XXSP,2013-06-15 08:48:00,
2013-06-15 01:49:00,50.5,47.2,30.05,NNW,337,0.0,4.2,89,0.00,,,0.00,WUHU21636XXSP,2013-06-15 08:49:00,
2013-06-15 01:50:00,50.5,47.2,30.05,NNW,337,0.0,4.2,89,0.00,,,0.00,WUHU21636XXSP,2013-06-15 08:50:00,
2013-06-15 01:51:00,50.5,47.2,30.05,NNW,337,0.0,4.2,89,0.00,,,0.00,WUHU21636XXSP,2013-06-15 08:51:00,
2013-06-15 01:53:00,50.5,47.2,30.05,North,0,0.0,0.0,89,0.00,,,0.00,WUHU21636XXSP,2013-06-15 08:53:00,
2013-06-15 01:54:00,50.5,47.2,30.05,North,0,0.0,0.0,89,0.00,,,0.00,WUHU21636XXSP,2013-06-15 08:54:00,
2013-06-15 01:55:00,50.4,47.1,30.05,North,0,0.0,0.0,89,0.00,,,0.00,WUHU21636XXSP,2013-06-15 08:55:00,
2013-06-15 01:56:00,50.4,47.1,30.05,North,0,0.0,0.0,89,0.00,,,0.00,WUHU21636XXSP,2013-06-15 08:56:00,
2013-06-15 01:58:00,50.4,47.1,30.04,NNW,337,0.0,0.0,89,0.00,,,0.00,WUHU21636XXSP,2013-06-15 08:58:00,
2013-06-15 01:59:00,50.4,47.1,30.04,NNW,337,0.0,0.0,89,0.00,,,0.00,WUHU21636XXSP,2013-06-15 08:59:00,
2013-06-15 02:00:00,50.4,47.1,30.04,NNW,337,0.0,0.0,89,0.00,,,0.00,WUHU21636XXSP,2013-06-15 09:00:00,
2013-06-15 02:01:00,50.2,46.9,30.04,NNW,337,0.0,0.0,89,0.00,,,0.00,WUHU21636XXSP,2013-06-15 09:01:00,
2013-06-15 02:02:00,50.2,46.9,30.04,NNW,337,0.0,0.0,89,0.00,,,0.00,WUHU21636XXSP,2013-06-15 09:02:00,
2013-06-15 02:03:00,50.2,46.9,30.04,NNW,337,3.3,3.3,89,0.00,,,0.00,WUHU21636XXSP,2013-06-15 09:03:00,
2013-06-15 02:04:00,50.2,46.9,30.04,NNW,337,3.3,3.3,89,0.00,,,0.00,WUHU21636XXSP,2013-06-15 09:04:00,
2013-06-15 02:05:00,50.2,46.9,30.04,NNW,337,3.3,3.3,89,0.00,,,0.00,WUHU21636XXSP,2013-06-15 09:05:00,
2013-06-15 02:06:00,50.2,46.9,30.04,NNW,342,1.7,3.3,89,0.00,,,0.00,WUHU21636XXSP,2013-06-15 09:06:00,
2013-06-15 02:07:00,50.2,46.9,30.04,North,0,0.6,3.3,89,0.00,,,0.00,WUHU21636XXSP,2013-06-15 09:07:00,
2013-06-15 02:09:00,50.2,47.2,30.04,North,0,3.8,3.8,90,0.00,,,0.00,WUHU21636XXSP,2013-06-15 09:09:00,
2013-06-15 02:10:00,50.2,47.2,30.04,NNE,22,5.8,7.1,90,0.00,,,0.00,WUHU21636XXSP,2013-06-15 09:10:00,
2013-06-15 02:11:00,50.2,47.2,30.04,NNE,17,3.0,7.1,90,0.00,,,0.00,WUHU21636XXSP,2013-06-15 09:11:00,
2013-06-15 02:12:00,50.2,47.2,30.04,North,10,1.9,7.1,90,0.00,,,0.00,WUHU21636XXSP,2013-06-15 09:12:00,
2013-06-15 02:14:00,50.2,46.9,30.04,North,0,3.3,7.1,89,0.00,,,0.00,WUHU21636XXSP,2013-06-15 09:14:00,
2013-06-15 02:15:00,50.2,46.9,30.04,North,0,3.3,7.1,89,0.00,,,0.00,WUHU21636XXSP,2013-06-15 09:15:00,
2013-06-15 02:16:00,50.2,47.2,30.04,North,0,3.1,7.1,90,0.00,,,0.00,WUHU21636XXSP,2013-06-15 09:16:00,
2013-06-15 02:17:00,50.2,47.2,30.04,NE,45,4.0,7.1,90,0.00,,,0.00,WUHU21636XXSP,2013-06-15 09:17:00,
2013-06-15 02:19:00,50.4,47.4,30.04,NE,41,3.8,7.1,90,0.00,,,0.00,WUHU21636XXSP,2013-06-15 09:19:00,
2013-06-15 02:20:00,50.4,47.4,30.04,NE,35,3.5,6.2,90,0.00,,,0.00,WUHU21636XXSP,2013-06-15 09:20:00,
2013-06-15 02:21:00,50.4,47.4,30.04,NNE,15,2.8,4.0,90,0.00,,,0.00,WUHU21636XXSP,2013-06-15 09:21:00,
2013-06-15 02:22:00,50.4,47.4,30.04,North,0,5.1,5.1,90,0.00,,,0.00,WUHU21636XXSP,2013-06-15 09:22:00,
2013-06-15 02:24:00,50.4,47.4,30.04,North,0,5.1,5.1,90,0.00,,,0.00,WUHU21636XXSP,2013-06-15 09:24:00,
2013-06-15 02:25:00,50.4,47.4,30.04,North,0,5.1,5.1,90,0.00,,,0.00,WUHU21636XXSP,2013-06-15 09:25:00,
2013-06-15 02:26:00,50.4,47.4,30.04,NNE,22,0.0,5.1,90,0.00,,,0.00,WUHU21636XXSP,2013-06-15 09:26:00,
2013-06-15 02:27:00,50.4,47.4,30.04,NNE,22,0.0,5.1,90,0.00,,,0.00,WUHU21636XXSP,2013-06-15 09:27:00,
2013-06-15 02:30:00,50.2,47.2,30.04,NNE,22,0.0,5.1,90,0.00,,,0.00,WUHU21636XXSP,2013-06-15 09:30:00,
2013-06-15 02:31:00,50.2,47.2,30.04,NNE,22,0.0,5.1,90,0.00,,,0.00,WUHU21636XXSP,2013-06-15 09:31:00,
2013-06-15 02:32:00,50.2,47.2,30.04,NNE,22,0.0,5.1,90,0.00,,,0.00,WUHU21636XXSP,2013-06-15 09:32:00,
2013-06-15 02:33:00,50.2,47.2,30.04,North,0,0.0,5.1,90,0.00,,,0.00,WUHU21636XXSP,2013-06-15 09:33:00,
2013-06-15 02:35:00,50.0,47.0,30.04,North,0,0.0,0.0,90,0.00,,,0.00,WUHU21636XXSP,2013-06-15 09:35:00,
2013-06-15 02:36:00,50.0,47.0,30.04,North,0,0.0,0.0,90,0.00,,,0.00,WUHU21636XXSP,2013-06-15 09:36:00,
2013-06-15 02:37:00,50.0,47.0,30.04,North,0,0.0,0.0,90,0.00,,,0.00,WUHU21636XXSP,2013-06-15 09:37:00,
2013-06-15 02:38:00,50.0,47.0,30.04,North,0,0.0,0.0,90,0.00,,,0.00,WUHU21636XXSP,2013-06-15 09:38:00,
2013-06-15 02:40:00,49.8,46.8,30.04,North,0,0.0,0.0,90,0.00,,,0.00,WUHU21636XXSP,2013-06-15 09:40:00,
2013-06-15 02:41:00,49.8,46.8,30.04,North,0,0.0,0.0,90,0.00,,,0.00,WUHU21636XXSP,2013-06-15 09:41:00,
2013-06-15 02:42:00,49.8,46.8,30.04,North,0,0.0,0.0,90,0.00,,,0.00,WUHU21636XXSP,2013-06-15 09:42:00,
2013-06-15 02:43:00,49.6,46.6,30.03,North,0,0.0,0.0,90,0.00,,,0.00,WUHU21636XXSP,2013-06-15 09:43:00,
2013-06-15 02:45:00,49.6,46.6,30.04,North,0,0.0,0.0,90,0.00,,,0.00,WUHU21636XXSP,2013-06-15 09:45:00,
2013-06-15 02:46:00,49.6,46.6,30.04,North,0,0.0,0.0,90,0.00,,,0.00,WUHU21636XXSP,2013-06-15 09:46:00,
2013-06-15 02:47:00,49.6,46.6,30.03,NNE,22,0.0,0.0,90,0.00,,,0.00,WUHU21636XXSP,2013-06-15 09:47:00,
2013-06-15 02:48:00,49.6,46.6,30.04,NNE,22,0.0,0.0,90,0.00,,,0.00,WUHU21636XXSP,2013-06-15 09:48:00,
2013-06-15 02:51:00,49.6,46.6,30.04,NNE,22,0.0,0.0,90,0.00,,,0.00,WUHU21636XXSP,2013-06-15 09:51:00,
2013-06-15 02:52:00,49.5,46.5,30.04,NNE,22,0.0,0.0,90,0.00,,,0.00,WUHU21636XXSP,2013-06-15 09:52:00,
2013-06-15 02:53:00,49.5,46.5,30.04,NNE,22,0.0,0.0,90,0.00,,,0.00,WUHU21636XXSP,2013-06-15 09:53:00,
2013-06-15 02:56:00,49.3,46.3,30.04,NNE,22,0.0,0.0,90,0.00,,,0.00,WUHU21636XXSP,2013-06-15 09:56:00,
2013-06-15 02:57:00,49.3,46.3,30.04,NNE,22,0.0,0.0,90,0.00,,,0.00,WUHU21636XXSP,2013-06-15 09:57:00,
2013-06-15 02:58:00,49.3,46.3,30.04,NNE,22,0.0,0.0,90,0.00,,,0.00,WUHU21636XXSP,2013-06-15 09:58:00,
2013-06-15 03:01:00,49.1,46.1,30.04,NNE,22,0.0,0.0,90,0.00,,,0.00,WUHU21636XXSP,2013-06-15 10:01:00,
2013-06-15 03:02:00,49.1,46.1,30.04,NNE,22,0.0,0.0,90,0.00,,,0.00,WUHU21636XXSP,2013-06-15 10:02:00,
2013-06-15 03:03:00,49.1,46.1,30.04,NNE,22,0.0,0.0,90,0.00,,,0.00,WUHU21636XXSP,2013-06-15 10:03:00,
2013-06-15 03:06:00,48.9,45.9,30.04,NNE,22,0.0,0.0,90,0.00,,,0.00,WUHU21636XXSP,2013-06-15 10:06:00,
2013-06-15 03:07:00,48.9,45.9,30.04,NNE,22,0.0,0.0,90,0.00,,,0.00,WUHU21636XXSP,2013-06-15 10:07:00,
2013-06-15 03:08:00,48.9,45.9,30.04,NNE,22,0.0,0.0,90,0.00,,,0.00,WUHU21636XXSP,2013-06-15 10:08:00,
2013-06-15 03:11:00,48.9,45.9,30.04,North,0,0.0,0.0,90,0.00,,,0.00,WUHU21636XXSP,2013-06-15 10:11:00,
2013-06-15 03:12:00,48.9,45.9,30.04,North,0,0.0,0.0,90,0.00,,,0.00,WUHU21636XXSP,2013-06-15 10:12:00,
2013-06-15 03:13:00,48.9,45.9,30.03,North,0,0.0,0.0,90,0.00,,,0.00,WUHU21636XXSP,2013-06-15 10:13:00,
2013-06-15 03:14:00,48.9,45.9,30.03,North,0,0.0,0.0,90,0.00,,,0.00,WUHU21636XXSP,2013-06-15 10:14:00,
2013-06-15 03:17:00,48.9,45.9,30.03,North,0,0.0,0.0,90,0.00,,,0.00,WUHU21636XXSP,2013-06-15 10:17:00,
2013-06-15 03:18:00,48.9,45.9,30.03,North,0,0.0,0.0,90,0.00,,,0.00,WUHU21636XXSP,2013-06-15 10:18:00,
2013-06-15 03:19:00,48.9,45.9,30.03,North,0,0.0,0.0,90,0.00,,,0.00,WUHU21636XXSP,2013-06-15 10:19:00,
2013-06-15 03:20:00,48.9,45.9,30.03,North,0,1.7,1.7,90,0.00,,,0.00,WUHU21636XXSP,2013-06-15 10:20:00,
2013-06-15 03:22:00,48.9,45.9,30.03,North,0,1.7,1.7,90,0.00,,,0.00,WUHU21636XXSP,2013-06-15 10:22:00,
2013-06-15 03:23:00,48.9,45.9,30.03,North,0,1.7,1.7,90,0.00,,,0.00,WUHU21636XXSP,2013-06-15 10:23:00,
2013-06-15 03:24:00,48.9,45.9,30.03,NNW,337,0.0,1.7,90,0.00,,,0.00,WUHU21636XXSP,2013-06-15 10:24:00,
2013-06-15 03:25:00,49.1,46.4,30.03,North,0,3.5,3.5,91,0.00,,,0.00,WUHU21636XXSP,2013-06-15 10:25:00,
2013-06-15 03:27:00,49.1,46.4,30.03,North,0,3.5,3.5,91,0.00,,,0.00,WUHU21636XXSP,2013-06-15 10:27:00,
2013-06-15 03:28:00,49.1,46.4,30.03,North,0,3.5,3.5,91,0.00,,,0.00,WUHU21636XXSP,2013-06-15 10:28:00,
2013-06-15 03:29:00,49.3,46.3,30.03,NNE,22,3.1,3.5,90,0.00,,,0.00,WUHU21636XXSP,2013-06-15 10:29:00,
2013-06-15 03:31:00,49.3,46.6,30.03,NNE,22,3.1,3.5,91,0.00,,,0.00,WUHU21636XXSP,2013-06-15 10:31:00,
2013-06-15 03:32:00,49.3,46.6,30.03,NNE,22,3.1,3.5,91,0.00,,,0.00,WUHU21636XXSP,2013-06-15 10:32:00,
2013-06-15 03:33:00,49.6,46.6,30.03,NNE,22,0.0,3.5,90,0.00,,,0.00,WUHU21636XXSP,2013-06-15 10:33:00,
2013-06-15 03:34:00,49.6,46.6,30.03,NNE,22,0.0,3.5,90,0.00,,,0.00,WUHU21636XXSP,2013-06-15 10:34:00,
2013-06-15 03:36:00,49.6,46.6,30.03,NNW,337,0.0,3.5,90,0.00,,,0.00,WUHU21636XXSP,2013-06-15 10:36:00,
2013-06-15 03:37:00,49.6,46.6,30.03,North,0,0.0,3.1,90,0.00,,,0.00,WUHU21636XXSP,2013-06-15 10:37:00,
2013-06-15 03:39:00,49.6,46.6,30.03,North,0,0.0,3.1,90,0.00,,,0.00,WUHU21636XXSP,2013-06-15 10:39:00,
2013-06-15 03:41:00,49.6,46.6,30.03,North,0,0.0,0.0,90,0.00,,,0.00,WUHU21636XXSP,2013-06-15 10:41:00,
2013-06-15 03:42:00,49.6,46.6,30.03,North,0,0.0,0.0,90,0.00,,,0.00,WUHU21636XXSP,2013-06-15 10:42:00,
2013-06-15 03:44:00,49.6,46.6,30.03,NNE,22,0.0,0.0,90,0.00,,,0.00,WUHU21636XXSP,2013-06-15 10:44:00,
2013-06-15 03:46:00,49.5,46.5,30.03,North,0,0.0,0.0,90,0.00,,,0.00,WUHU21636XXSP,2013-06-15 10:46:00,
2013-06-15 03:47:00,49.5,46.5,30.03,North,0,0.0,0.0,90,0.00,,,0.00,WUHU21636XXSP,2013-06-15 10:47:00,
2013-06-15 03:49:00,49.6,46.6,30.03,North,0,2.0,2.0,90,0.00,,,0.00,WUHU21636XXSP,2013-06-15 10:49:00,
2013-06-15 03:50:00,49.6,46.6,30.03,North,0,2.0,2.0,90,0.00,,,0.00,WUHU21636XXSP,2013-06-15 10:50:00,
2013-06-15 03:51:00,49.6,46.6,30.03,North,0,2.0,2.0,90,0.00,,,0.00,WUHU21636XXSP,2013-06-15 10:51:00,
2013-06-15 03:52:00,49.6,46.6,30.02,North,0,2.2,2.2,90,0.00,,,0.00,WUHU21636XXSP,2013-06-15 10:52:00,
2013-06-15 03:54:00,49.6,46.6,30.03,North,0,2.2,2.2,90,0.00,,,0.00,WUHU21636XXSP,2013-06-15 10:54:00,
2013-06-15 03:55:00,49.6,46.6,30.03,North,0,2.2,2.2,90,0.00,,,0.00,WUHU21636XXSP,2013-06-15 10:55:00,
2013-06-15 03:57:00,49.6,46.6,30.03,North,0,0.0,2.2,90,0.00,,,0.00,WUHU21636XXSP,2013-06-15 10:57:00,
2013-06-15 03:58:00,49.6,46.6,30.03,North,0,0.0,2.2,90,0.00,,,0.00,WUHU21636XXSP,2013-06-15 10:58:00,
2013-06-15 03:59:00,49.6,46.6,30.03,North,0,0.0,2.2,90,0.00,,,0.00,WUHU21636XXSP,2013-06-15 10:59:00,
2013-06-15 04:00:00,49.6,46.6,30.03,North,0,0.0,2.2,90,0.00,,,0.00,WUHU21636XXSP,2013-06-15 11:00:00,
2013-06-15 04:02:00,49.6,46.6,30.03,North,0,0.0,2.2,90,0.00,,,0.00,WUHU21636XXSP,2013-06-15 11:02:00,
2013-06-15 04:03:00,49.6,46.6,30.03,North,0,0.0,2.2,90,0.00,,,0.00,WUHU21636XXSP,2013-06-15 11:03:00,
2013-06-15 04:04:00,49.6,46.6,30.03,North,0,0.0,0.0,90,0.00,,,0.00,WUHU21636XXSP,2013-06-15 11:04:00,
2013-06-15 04:05:00,49.6,46.6,30.03,NNE,22,0.0,0.0,90,0.00,,,0.00,WUHU21636XXSP,2013-06-15 11:05:00,
2013-06-15 04:07:00,49.6,46.6,30.03,NNE,22,0.0,0.0,90,0.00,,,0.00,WUHU21636XXSP,2013-06-15 11:07:00,
2013-06-15 04:08:00,49.6,46.6,30.03,NNE,22,0.0,0.0,90,0.00,,,0.00,WUHU21636XXSP,2013-06-15 11:08:00,
2013-06-15 04:10:00,49.6,46.6,30.03,NNE,22,0.0,0.0,90,0.00,,,0.00,WUHU21636XXSP,2013-06-15 11:10:00,
2013-06-15 04:12:00,49.5,46.5,30.03,NNE,22,0.0,0.0,90,0.00,,,0.00,WUHU21636XXSP,2013-06-15 11:12:00,
2013-06-15 04:13:00,49.5,46.5,30.03,NNE,22,0.0,0.0,90,0.00,,,0.00,WUHU21636XXSP,2013-06-15 11:13:00,
2013-06-15 04:15:00,49.3,46.3,30.03,NNE,22,0.0,0.0,90,0.00,,,0.00,WUHU21636XXSP,2013-06-15 11:15:00,
2013-06-15 04:16:00,49.3,46.3,30.03,NNE,22,0.0,0.0,90,0.00,,,0.00,WUHU21636XXSP,2013-06-15 11:16:00,
2013-06-15 04:17:00,49.3,46.3,30.03,NNE,22,0.0,0.0,90,0.00,,,0.00,WUHU21636XXSP,2013-06-15 11:17:00,
2013-06-15 04:18:00,49.1,46.1,30.03,NNE,22,0.0,0.0,90,0.00,,,0.00,WUHU21636XXSP,2013-06-15 11:18:00,
2013-06-15 04:20:00,49.1,46.1,30.03,NNE,22,0.0,0.0,90,0.00,,,0.00,WUHU21636XXSP,2013-06-15 11:20:00,
2013-06-15 04:22:00,49.1,46.1,30.03,NNE,22,0.0,0.0,90,0.00,,,0.00,WUHU21636XXSP,2013-06-15 11:22:00,
2013-06-15 04:23:00,49.1,46.1,30.03,NNE,22,0.0,0.0,90,0.00,,,0.00,WUHU21636XXSP,2013-06-15 11:23:00,
2013-06-15 04:25:00,48.9,45.9,30.03,NNE,22,0.0,0.0,90,0.00,,,0.00,WUHU21636XXSP,2013-06-15 11:25:00,
2013-06-15 04:27:00,48.9,45.9,30.03,NNE,22,0.0,0.0,90,0.00,,,0.00,WUHU21636XXSP,2013-06-15 11:27:00,
2013-06-15 04:28:00,48.9,45.9,30.03,NNE,22,0.0,0.0,90,0.00,,,0.00,WUHU21636XXSP,2013-06-15 11:28:00,
2013-06-15 04:30:00,48.7,45.7,30.03,NNE,22,0.0,0.0,90,0.00,,,0.00,WUHU21636XXSP,2013-06-15 11:30:00,
2013-06-15 04:31:00,48.7,45.7,30.03,NNE,22,0.0,0.0,90,0.00,,,0.00,WUHU21636XXSP,2013-06-15 11:31:00,
2013-06-15 04:32:00,48.7,45.7,30.03,NNE,22,0.0,0.0,90,0.00,,,0.00,WUHU21636XXSP,2013-06-15 11:32:00,
2013-06-15 04:33:00,48.7,45.7,30.03,NNE,22,0.0,0.0,90,0.00,,,0.00,WUHU21636XXSP,2013-06-15 11:33:00,
2013-06-15 04:34:00,48.6,45.6,30.03,NNE,22,0.0,0.0,90,0.00,,,0.00,WUHU21636XXSP,2013-06-15 11:34:00,
2013-06-15 04:36:00,48.6,45.6,30.03,NNE,22,0.0,0.0,90,0.00,,,0.00,WUHU21636XXSP,2013-06-15 11:36:00,
2013-06-15 04:37:00,48.6,45.6,30.03,NNE,22,0.0,0.0,90,0.00,,,0.00,WUHU21636XXSP,2013-06-15 11:37:00,
2013-06-15 04:38:00,48.6,45.6,30.03,NNE,22,0.0,0.0,90,0.00,,,0.00,WUHU21636XXSP,2013-06-15 11:38:00,
2013-06-15 04:39:00,48.6,45.6,30.03,NNE,22,0.0,0.0,90,0.00,,,0.00,WUHU21636XXSP,2013-06-15 11:39:00,
2013-06-15 04:41:00,48.6,45.9,30.03,NNE,22,0.0,0.0,91,0.00,,,0.00,WUHU21636XXSP,2013-06-15 11:41:00,
2013-06-15 04:42:00,48.4,45.7,30.02,NNE,22,0.0,0.0,91,0.00,,,0.00,WUHU21636XXSP,2013-06-15 11:42:00,
2013-06-15 04:43:00,48.4,45.7,30.02,NNE,22,0.0,0.0,91,0.00,,,0.00,WUHU21636XXSP,2013-06-15 11:43:00,
2013-06-15 04:44:00,48.4,45.7,30.02,NNE,22,0.0,0.0,91,0.00,,,0.00,WUHU21636XXSP,2013-06-15 11:44:00,
2013-06-15 04:46:00,48.4,45.7,30.02,NNE,22,0.0,0.0,91,0.00,,,0.00,WUHU21636XXSP,2013-06-15 11:46:00,
2013-06-15 04:47:00,48.6,45.9,30.02,North,0,0.0,0.0,91,0.00,,,0.00,WUHU21636XXSP,2013-06-15 11:47:00,
2013-06-15 04:48:00,48.6,45.9,30.02,North,0,0.0,0.0,91,0.00,,,0.00,WUHU21636XXSP,2013-06-15 11:48:00,
2013-06-15 04:49:00,48.6,45.9,30.02,North,0,0.0,0.0,91,0.00,,,0.00,WUHU21636XXSP,2013-06-15 11:49:00,
2013-06-15 04:51:00,48.6,45.9,30.02,North,0,0.0,0.0,91,0.00,,,0.00,WUHU21636XXSP,2013-06-15 11:51:00,
2013-06-15 04:52:00,48.6,45.9,30.02,North,0,0.0,0.0,91,0.00,,,0.00,WUHU21636XXSP,2013-06-15 11:52:00,
2013-06-15 04:53:00,48.6,46.2,30.02,North,0,0.0,0.0,92,0.00,,,0.00,WUHU21636XXSP,2013-06-15 11:53:00,
2013-06-15 04:54:00,48.6,46.2,30.02,North,0,0.0,0.0,92,0.00,,,0.00,WUHU21636XXSP,2013-06-15 11:54:00,
2013-06-15 04:56:00,48.7,46.3,30.02,NNW,337,0.0,0.0,92,0.00,,,0.00,WUHU21636XXSP,2013-06-15 11:56:00,
2013-06-15 04:57:00,48.7,46.3,30.02,NNW,337,0.0,0.0,92,0.00,,,0.00,WUHU21636XXSP,2013-06-15 11:57:00,
2013-06-15 04:58:00,48.7,46.3,30.02,North,0,0.0,0.0,92,0.00,,,0.00,WUHU21636XXSP,2013-06-15 11:58:00,
2013-06-15 05:00:00,48.9,46.5,30.02,North,0,0.0,0.0,92,0.00,,,0.00,WUHU21636XXSP,2013-06-15 12:00:00,
2013-06-15 05:01:00,48.9,46.5,30.02,North,0,0.0,0.0,92,0.00,,,0.00,WUHU21636XXSP,2013-06-15 12:01:00,
2013-06-15 05:02:00,48.9,46.5,30.02,North,0,0.0,0.0,92,0.00,,,0.00,WUHU21636XXSP,2013-06-15 12:02:00,
2013-06-15 05:03:00,48.9,46.5,30.02,North,0,0.0,0.0,92,0.00,,,0.00,WUHU21636XXSP,2013-06-15 12:03:00,
2013-06-15 05:05:00,48.9,46.5,30.02,North,0,0.0,0.0,92,0.00,,,0.00,WUHU21636XXSP,2013-06-15 12:05:00,
2013-06-15 05:06:00,48.9,46.5,30.02,North,0,0.0,0.0,92,0.00,,,0.00,WUHU21636XXSP,2013-06-15 12:06:00,
2013-06-15 05:07:00,48.9,46.5,30.02,North,0,0.0,0.0,92,0.00,,,0.00,WUHU21636XXSP,2013-06-15 12:07:00,
2013-06-15 05:08:00,48.9,46.5,30.02,North,0,0.0,0.0,92,0.00,,,0.00,WUHU21636XXSP,2013-06-15 12:08:00,
2013-06-15 05:10:00,48.9,46.5,30.02,NNE,22,0.0,0.0,92,0.00,,,0.00,WUHU21636XXSP,2013-06-15 12:10:00,
2013-06-15 05:11:00,48.9,46.5,30.02,NNE,22,0.0,0.0,92,0.00,,,0.00,WUHU21636XXSP,2013-06-15 12:11:00,
2013-06-15 05:12:00,48.9,46.5,30.02,NNE,22,1.5,1.5,92,0.00,,,0.00,WUHU21636XXSP,2013-06-15 12:12:00,
2013-06-15 05:14:00,48.9,46.5,30.02,NNE,22,1.5,1.5,92,0.00,,,0.00,WUHU21636XXSP,2013-06-15 12:14:00,
2013-06-15 05:16:00,49.1,46.7,30.02,NNE,22,1.5,1.5,92,0.00,,,0.00,WUHU21636XXSP,2013-06-15 12:16:00,
2013-06-15 05:17:00,49.3,46.9,30.02,NNE,22,1.1,1.5,92,0.00,,,0.00,WUHU21636XXSP,2013-06-15 12:17:00,
2013-06-15 05:19:00,49.3,46.9,30.02,NNE,22,1.1,1.5,92,0.00,,,0.00,WUHU21636XXSP,2013-06-15 12:19:00,
2013-06-15 05:21:00,49.3,46.9,30.02,NNE,22,0.0,1.5,92,0.00,,,0.00,WUHU21636XXSP,2013-06-15 12:21:00,
2013-06-15 05:22:00,49.3,46.9,30.02,NNE,22,0.0,1.5,92,0.00,,,0.00,WUHU21636XXSP,2013-06-15 12:22:00,
2013-06-15 05:24:00,49.3,46.9,30.02,NNW,337,0.0,1.5,92,0.00,,,0.00,WUHU21636XXSP,2013-06-15 12:24:00,
2013-06-15 05:25:00,49.5,47.1,30.02,North,0,0.0,1.1,92,0.00,,,0.00,WUHU21636XXSP,2013-06-15 12:25:00,
2013-06-15 05:26:00,49.5,47.1,30.02,North,0,0.0,1.1,92,0.00,,,0.00,WUHU21636XXSP,2013-06-15 12:26:00,
2013-06-15 05:27:00,49.6,47.2,30.02,North,0,0.0,1.1,92,0.00,,,0.00,WUHU21636XXSP,2013-06-15 12:27:00,
2013-06-15 05:29:00,49.6,47.2,30.02,North,0,0.0,0.0,92,0.00,,,0.00,WUHU21636XXSP,2013-06-15 12:29:00,
2013-06-15 05:30:00,49.6,47.2,30.02,North,0,0.0,0.0,92,0.00,,,0.00,WUHU21636XXSP,2013-06-15 12:30:00,
2013-06-15 05:31:00,49.5,47.1,30.02,NNE,22,2.4,2.4,92,0.00,,,0.00,WUHU21636XXSP,2013-06-15 12:31:00,
2013-06-15 05:32:00,49.5,47.1,30.02,NNE,22,2.4,2.4,92,0.00,,,0.00,WUHU21636XXSP,2013-06-15 12:32:00,
2013-06-15 05:35:00,49.6,47.2,30.01,NNE,22,2.4,2.4,92,0.00,,,0.00,WUHU21636XXSP,2013-06-15 12:35:00,
2013-06-15 05:37:00,49.6,47.2,30.01,North,0,3.8,3.8,92,0.00,,,0.00,WUHU21636XXSP,2013-06-15 12:37:00,
2013-06-15 05:38:00,49.6,47.2,30.01,North,0,3.8,3.8,92,0.00,,,0.00,WUHU21636XXSP,2013-06-15 12:38:00,
2013-06-15 05:40:00,49.8,47.4,30.01,North,0,2.0,3.8,92,0.00,,,0.00,WUHU21636XXSP,2013-06-15 12:40:00,
2013-06-15 05:42:00,50.0,47.6,30.01,North,0,4.0,4.2,92,0.00,,,0.00,WUHU21636XXSP,2013-06-15 12:42:00,
2013-06-15 05:43:00,50.0,47.6,30.01,North,0,3.3,4.2,92,0.00,,,0.00,WUHU21636XXSP,2013-06-15 12:43:00,
2013-06-15 05:45:00,50.2,47.5,30.01,NNE,22,2.9,4.2,91,0.00,,,0.00,WUHU21636XXSP,2013-06-15 12:45:00,
2013-06-15 05:46:00,50.2,47.5,30.01,NNE,22,2.9,4.2,91,0.00,,,0.00,WUHU21636XXSP,2013-06-15 12:46:00,
2013-06-15 05:47:00,50.4,47.7,30.01,North,0,3.3,4.2,91,0.00,,,0.00,WUHU21636XXSP,2013-06-15 12:47:00,
2013-06-15 05:48:00,50.4,47.7,30.01,North,0,3.3,4.2,91,0.00,,,0.00,WUHU21636XXSP,2013-06-15 12:48:00,
2013-06-15 05:50:00,50.2,47.5,30.01,North,0,1.4,4.2,91,0.00,,,0.00,WUHU21636XXSP,2013-06-15 12:50:00,
2013-06-15 05:51:00,50.4,47.7,30.01,North,0,0.8,4.2,91,0.00,,,0.00,WUHU21636XXSP,2013-06-15 12:51:00,
2013-06-15 05:53:00,50.4,47.7,30.01,NNW,337,2.9,3.3,91,0.00,,,0.00,WUHU21636XXSP,2013-06-15 12:53:00,
2013-06-15 05:55:00,50.4,47.7,30.01,North,0,5.3,6.9,91,0.00,,,0.00,WUHU21636XXSP,2013-06-15 12:55:00,
2013-06-15 05:57:00,50.4,47.7,30.01,North,359,4.9,8.7,91,0.00,,,0.00,WUHU21636XXSP,2013-06-15 12:57:00,
2013-06-15 05:58:00,50.5,47.8,30.01,North,0,6.2,8.7,91,0.00,,,0.00,WUHU21636XXSP,2013-06-15 12:58:00,
2013-06-15 06:00:00,50.5,47.8,30.01,North,0,2.9,8.7,91,0.00,,,0.00,WUHU21636XXSP,2013-06-15 13:00:00,
2013-06-15 06:02:00,50.5,47.8,30.01,North,0,2.5,8.7,91,0.00,,,0.00,WUHU21636XXSP,2013-06-15 13:02:00,
2013-06-15 06:03:00,50.5,47.8,30.01,North,0,2.0,8.7,91,0.00,,,0.00,WUHU21636XXSP,2013-06-15 13:03:00,
2013-06-15 06:04:00,50.5,47.8,30.01,North,0,1.5,8.7,91,0.00,,,0.00,WUHU21636XXSP,2013-06-15 13:04:00,
2013-06-15 06:06:00,50.5,47.8,30.01,North,0,3.5,8.7,91,0.00,,,0.00,WUHU21636XXSP,2013-06-15 13:06:00,
2013-06-15 06:07:00,50.5,47.8,30.01,NNW,337,3.8,7.8,91,0.00,,,0.00,WUHU21636XXSP,2013-06-15 13:07:00,
2013-06-15 06:08:00,50.5,47.8,30.01,NNW,337,3.8,6.2,91,0.00,,,0.00,WUHU21636XXSP,2013-06-15 13:08:00,
2013-06-15 06:09:00,50.5,47.8,30.01,NNW,337,3.8,3.8,91,0.00,,,0.00,WUHU21636XXSP,2013-06-15 13:09:00,
2013-06-15 06:11:00,50.5,47.8,30.01,North,356,3.4,3.8,91,0.00,,,0.00,WUHU21636XXSP,2013-06-15 13:11:00,
2013-06-15 06:13:00,50.7,48.0,30.01,North,0,3.3,3.8,91,0.00,,,0.00,WUHU21636XXSP,2013-06-15 13:13:00,
2013-06-15 06:14:00,50.7,48.0,30.01,NNW,337,0.0,3.8,91,0.00,,,0.00,WUHU21636XXSP,2013-06-15 13:14:00,
2013-06-15 06:16:00,50.7,48.0,30.01,North,0,0.0,3.8,91,0.00,,,0.00,WUHU21636XXSP,2013-06-15 13:16:00,
2013-06-15 06:18:00,50.7,48.0,30.01,North,0,4.6,4.6,91,0.00,,,0.00,WUHU21636XXSP,2013-06-15 13:18:00,
2013-06-15 06:19:00,50.7,48.0,30.01,North,0,4.6,4.6,91,0.00,,,0.00,WUHU21636XXSP,2013-06-15 13:19:00,
2013-06-15 06:21:00,50.7,48.0,30.01,North,0,3.7,4.6,91,0.00,,,0.00,WUHU21636XXSP,2013-06-15 13:21:00,
2013-06-15 06:23:00,50.7,48.0,30.01,North,0,1.9,4.6,91,0.00,,,0.00,WUHU21636XXSP,2013-06-15 13:23:00,
2013-06-15 06:24:00,50.7,48.0,30.01,North,0,1.2,4.6,91,0.00,,,0.00,WUHU21636XXSP,2013-06-15 13:24:00,
2013-06-15 06:26:00,50.9,48.2,30.01,North,0,2.0,4.6,91,0.00,,,0.00,WUHU21636XXSP,2013-06-15 13:26:00,
2013-06-15 06:28:00,51.1,48.4,30.01,North,0,1.3,4.6,91,0.00,,,0.00,WUHU21636XXSP,2013-06-15 13:28:00,
2013-06-15 06:29:00,51.1,48.4,30.01,North,0,1.7,4.6,91,0.00,,,0.00,WUHU21636XXSP,2013-06-15 13:29:00,
2013-06-15 06:30:00,51.1,48.4,30.01,North,0,1.7,4.6,91,0.00,,,0.00,WUHU21636XXSP,2013-06-15 13:30:00,
2013-06-15 06:31:00,51.1,48.4,30.01,North,0,1.7,3.1,91,0.00,,,0.00,WUHU21636XXSP,2013-06-15 13:31:00,
2013-06-15 06:34:00,51.1,48.4,30.01,North,0,0.0,2.0,91,0.00,,,0.00,WUHU21636XXSP,2013-06-15 13:34:00,
2013-06-15 06:35:00,51.1,48.4,30.01,North,0,0.0,2.0,91,0.00,,,0.00,WUHU21636XXSP,2013-06-15 13:35:00,
2013-06-15 06:36:00,51.3,48.6,30.01,North,0,0.0,2.0,91,0.00,,,0.00,WUHU21636XXSP,2013-06-15 13:36:00,
2013-06-15 06:39:00,51.4,48.7,30.01,North,0,0.0,1.7,91,0.00,,,0.00,WUHU21636XXSP,2013-06-15 13:39:00,
2013-06-15 06:40:00,51.4,48.7,30.01,NNW,337,5.3,6.2,91,0.00,,,0.00,WUHU21636XXSP,2013-06-15 13:40:00,
2013-06-15 06:41:00,51.4,48.7,30.01,North,354,3.8,6.2,91,0.00,,,0.00,WUHU21636XXSP,2013-06-15 13:41:00,
2013-06-15 06:44:00,51.4,48.4,30.01,NNW,342,2.6,6.2,90,0.00,,,0.00,WUHU21636XXSP,2013-06-15 13:44:00,
2013-06-15 06:45:00,51.6,48.6,30.01,North,0,4.9,6.2,90,0.00,,,0.00,WUHU21636XXSP,2013-06-15 13:45:00,
2013-06-15 06:47:00,51.6,48.6,30.01,North,0,4.2,8.2,90,0.00,,,0.00,WUHU21636XXSP,2013-06-15 13:47:00,
2013-06-15 06:49:00,51.8,48.8,30.01,North,0,4.6,8.2,90,0.00,,,0.00,WUHU21636XXSP,2013-06-15 13:49:00,
2013-06-15 06:50:00,52.0,49.0,30.01,North,7,4.0,8.2,90,0.00,,,0.00,WUHU21636XXSP,2013-06-15 13:50:00,
2013-06-15 06:52:00,52.0,49.0,30.01,NE,40,2.5,8.2,90,0.00,,,0.00,WUHU21636XXSP,2013-06-15 13:52:00,
2013-06-15 06:54:00,52.2,49.2,30.01,NNE,22,1.5,8.2,90,0.00,,,0.00,WUHU21636XXSP,2013-06-15 13:54:00,
2013-06-15 06:55:00,52.2,49.2,30.01,NNE,22,1.5,8.2,90,0.00,,,0.00,WUHU21636XXSP,2013-06-15 13:55:00,
2013-06-15 06:57:00,52.3,49.3,30.01,NNW,337,1.3,8.0,90,0.00,,,0.00,WUHU21636XXSP,2013-06-15 13:57:00,
2013-06-15 06:59:00,52.5,49.5,30.01,North,0,3.3,4.6,90,0.00,,,0.00,WUHU21636XXSP,2013-06-15 13:59:00,
2013-06-15 07:00:00,52.5,49.2,30.00,North,0,3.3,3.3,89,0.00,,,0.00,WUHU21636XXSP,2013-06-15 14:00:00,
2013-06-15 07:01:00,52.5,49.2,30.01,North,0,3.3,3.3,89,0.00,,,0.00,WUHU21636XXSP,2013-06-15 14:01:00,
2013-06-15 07:02:00,52.7,49.4,30.01,NNE,22,0.6,3.3,89,0.00,,,0.00,WUHU21636XXSP,2013-06-15 14:02:00,
2013-06-15 07:04:00,52.7,49.4,30.01,NNE,22,0.6,3.3,89,0.00,,,0.00,WUHU21636XXSP,2013-06-15 14:04:00,
2013-06-15 07:05:00,52.9,49.6,30.00,North,0,4.2,4.2,89,0.00,,,0.00,WUHU21636XXSP,2013-06-15 14:05:00,
2013-06-15 07:06:00,52.9,49.6,30.00,North,0,4.2,4.2,89,0.00,,,0.00,WUHU21636XXSP,2013-06-15 14:06:00,
2013-06-15 07:07:00,53.1,49.8,30.01,North,0,4.2,4.2,89,0.00,,,0.00,WUHU21636XXSP,2013-06-15 14:07:00,
2013-06-15 07:09:00,53.2,49.9,30.01,NE,45,2.2,4.2,89,0.00,,,0.00,WUHU21636XXSP,2013-06-15 14:09:00,
2013-06-15 07:10:00,53.2,49.9,30.00,NE,45,2.2,4.2,89,0.00,,,0.00,WUHU21636XXSP,2013-06-15 14:10:00,
2013-06-15 07:11:00,53.2,49.9,30.00,North,0,3.3,4.2,89,0.00,,,0.00,WUHU21636XXSP,2013-06-15 14:11:00,
2013-06-15 07:12:00,53.2,49.9,30.00,North,0,3.3,4.2,89,0.00,,,0.00,WUHU21636XXSP,2013-06-15 14:12:00,
2013-06-15 07:13:00,53.2,49.9,30.00,North,0,3.3,4.2,89,0.00,,,0.00,WUHU21636XXSP,2013-06-15 14:13:00,
2013-06-15 07:15:00,53.4,49.8,30.01,NNE,22,4.0,4.2,88,0.00,,,0.00,WUHU21636XXSP,2013-06-15 14:15:00,
2013-06-15 07:16:00,53.4,49.8,30.01,NNE,22,4.0,4.2,88,0.00,,,0.00,WUHU21636XXSP,2013-06-15 14:16:00,
2013-06-15 07:17:00,53.6,50.0,30.01,NNE,22,4.0,4.0,88,0.00,,,0.00,WUHU21636XXSP,2013-06-15 14:17:00,
2013-06-15 07:18:00,53.6,50.0,30.01,NNE,22,4.0,4.0,88,0.00,,,0.00,WUHU21636XXSP,2013-06-15 14:18:00,
2013-06-15 07:21:00,53.8,50.2,30.01,East,90,0.0,4.0,88,0.00,,,0.00,WUHU21636XXSP,2013-06-15 14:21:00,
2013-06-15 07:22:00,54.0,50.4,30.01,NNE,22,0.0,4.0,88,0.00,,,0.00,WUHU21636XXSP,2013-06-15 14:22:00,
2013-06-15 07:23:00,54.0,50.4,30.00,NNE,22,0.0,4.0,88,0.00,,,0.00,WUHU21636XXSP,2013-06-15 14:23:00,
2013-06-15 07:26:00,54.0,50.1,30.00,ENE,67,5.3,7.3,87,0.00,,,0.00,WUHU21636XXSP,2013-06-15 14:26:00,
2013-06-15 07:27:00,54.1,50.2,30.01,NE,42,3.2,7.3,87,0.00,,,0.00,WUHU21636XXSP,2013-06-15 14:27:00,
2013-06-15 07:28:00,54.1,50.2,30.01,ENE,67,2.0,7.3,87,0.00,,,0.00,WUHU21636XXSP,2013-06-15 14:28:00,
2013-06-15 07:31:00,54.1,50.2,30.01,NNW,340,2.5,8.2,87,0.00,,,0.00,WUHU21636XXSP,2013-06-15 14:31:00,
2013-06-15 07:32:00,54.3,50.4,30.01,NNW,337,2.4,8.2,87,0.00,,,0.00,WUHU21636XXSP,2013-06-15 14:32:00,
2013-06-15 07:33:00,54.3,50.4,30.01,NNW,337,2.4,8.2,87,0.00,,,0.00,WUHU21636XXSP,2013-06-15 14:33:00,
2013-06-15 07:36:00,54.7,50.7,30.01,North,0,0.8,8.2,87,0.00,,,0.00,WUHU21636XXSP,2013-06-15 14:36:00,
2013-06-15 07:37:00,54.7,50.7,30.01,North,0,0.8,8.2,87,0.00,,,0.00,WUHU21636XXSP,2013-06-15 14:37:00,
2013-06-15 07:38:00,54.7,50.4,30.01,North,0,0.8,8.2,86,0.00,,,0.00,WUHU21636XXSP,2013-06-15 14:38:00,
2013-06-15 07:41:00,54.9,50.6,30.01,NNE,22,0.8,2.4,86,0.00,,,0.00,WUHU21636XXSP,2013-06-15 14:41:00,
2013-06-15 07:42:00,54.9,50.6,30.01,North,0,4.6,4.6,86,0.00,,,0.00,WUHU21636XXSP,2013-06-15 14:42:00,
2013-06-15 07:43:00,54.9,50.6,30.01,North,0,4.6,4.6,86,0.00,,,0.00,WUHU21636XXSP,2013-06-15 14:43:00,
2013-06-15 07:46:00,55.0,50.7,30.01,North,0,0.0,4.6,86,0.00,,,0.00,WUHU21636XXSP,2013-06-15 14:46:00,
2013-06-15 07:47:00,55.0,50.7,30.01,North,0,2.4,4.6,86,0.00,,,0.00,WUHU21636XXSP,2013-06-15 14:47:00,
2013-06-15 07:48:00,55.0,50.7,30.01,North,0,2.4,4.6,86,0.00,,,0.00,WUHU21636XXSP,2013-06-15 14:48:00,
2013-06-15 07:51:00,55.2,50.9,30.01,NNE,22,4.4,4.6,86,0.00,,,0.00,WUHU21636XXSP,2013-06-15 14:51:00,
2013-06-15 07:52:00,55.2,50.9,30.01,NNE,22,4.4,4.6,86,0.00,,,0.00,WUHU21636XXSP,2013-06-15 14:52:00,
2013-06-15 07:53:00,55.2,50.9,30.01,NNE,22,4.4,4.6,86,0.00,,,0.00,WUHU21636XXSP,2013-06-15 14:53:00,
2013-06-15 07:54:00,55.6,51.0,30.00,NNE,15,3.8,4.6,85,0.00,,,0.00,WUHU21636XXSP,2013-06-15 14:54:00,
2013-06-15 07:56:00,55.6,51.0,30.01,North,0,2.9,4.4,85,0.00,,,0.00,WUHU21636XXSP,2013-06-15 14:56:00,
2013-06-15 07:57:00,55.8,51.2,30.01,NNW,337,3.5,4.4,85,0.00,,,0.00,WUHU21636XXSP,2013-06-15 14:57:00,
2013-06-15 07:58:00,55.8,51.2,30.01,NNW,337,3.5,4.4,85,0.00,,,0.00,WUHU21636XXSP,2013-06-15 14:58:00,
2013-06-15 07:59:00,55.8,51.2,30.01,NNW,337,3.5,4.4,85,0.00,,,0.00,WUHU21636XXSP,2013-06-15 14:59:00,
2013-06-15 08:01:00,55.9,50.6,30.01,NE,45,2.2,4.4,82,0.00,,,0.00,WUHU21636XXSP,2013-06-15 15:01:00,
2013-06-15 08:02:00,55.9,50.6,30.01,NE,45,2.2,4.4,82,0.00,,,0.00,WUHU21636XXSP,2013-06-15 15:02:00,
2013-06-15 08:03:00,55.9,50.6,30.01,NE,45,2.2,3.5,82,0.00,,,0.00,WUHU21636XXSP,2013-06-15 15:03:00,
2013-06-15 08:04:00,56.1,51.2,30.01,North,0,4.4,4.4,83,0.00,,,0.00,WUHU21636XXSP,2013-06-15 15:04:00,
2013-06-15 08:07:00,56.1,50.8,30.01,NNE,12,5.3,8.7,82,0.00,,,0.00,WUHU21636XXSP,2013-06-15 15:07:00,
2013-06-15 08:08:00,56.1,50.8,30.01,NNE,33,3.7,8.7,82,0.00,,,0.00,WUHU21636XXSP,2013-06-15 15:08:00,
2013-06-15 08:09:00,56.1,50.8,30.01,NE,45,2.9,8.7,82,0.00,,,0.00,WUHU21636XXSP,2013-06-15 15:09:00,
2013-06-15 08:12:00,56.1,50.5,30.01,North,0,10.9,12.7,81,0.00,,,0.00,WUHU21636XXSP,2013-06-15 15:12:00,
2013-06-15 08:13:00,56.1,50.5,30.01,North,0,7.6,12.7,81,0.00,,,0.00,WUHU21636XXSP,2013-06-15 15:13:00,
2013-06-15 08:14:00,56.1,50.5,30.00,North,7,4.6,12.7,81,0.00,,,0.00,WUHU21636XXSP,2013-06-15 15:14:00,
2013-06-15 08:15:00,56.1,50.5,30.01,North,0,2.9,12.7,81,0.00,,,0.00,WUHU21636XXSP,2013-06-15 15:15:00,
2013-06-15 08:17:00,56.1,50.5,30.01,North,0,3.1,12.7,81,0.00,,,0.00,WUHU21636XXSP,2013-06-15 15:17:00,
2013-06-15 08:18:00,56.1,50.5,30.01,NNW,337,3.8,12.7,81,0.00,,,0.00,WUHU21636XXSP,2013-06-15 15:18:00,
2013-06-15 08:19:00,56.1,50.5,30.01,NNW,337,3.8,12.7,81,0.00,,,0.00,WUHU21636XXSP,2013-06-15 15:19:00,
2013-06-15 08:20:00,56.1,50.2,30.00,NNW,340,4.0,12.7,80,0.00,,,0.00,WUHU21636XXSP,2013-06-15 15:20:00,
2013-06-15 08:22:00,56.3,50.7,30.01,NNE,23,1.9,10.9,81,0.00,,,0.00,WUHU21636XXSP,2013-06-15 15:22:00,
2013-06-15 08:23:00,56.3,50.7,30.01,NE,40,0.9,6.7,81,0.00,,,0.00,WUHU21636XXSP,2013-06-15 15:23:00,
2013-06-15 08:24:00,56.3,50.4,30.01,East,90,0.4,6.7,80,0.00,,,0.00,WUHU21636XXSP,2013-06-15 15:24:00,
2013-06-15 08:26:00,56.3,50.4,30.01,East,90,0.4,6.7,80,0.00,,,0.00,WUHU21636XXSP,2013-06-15 15:26:00,
2013-06-15 08:27:00,56.5,50.9,30.00,ESE,112,0.0,6.7,81,0.00,,,0.00,WUHU21636XXSP,2013-06-15 15:27:00,
2013-06-15 08:28:00,56.5,50.9,30.01,ESE,112,0.0,6.7,81,0.00,,,0.00,WUHU21636XXSP,2013-06-15 15:28:00,
2013-06-15 08:30:00,56.8,50.9,30.01,North,0,4.6,4.6,80,0.00,,,0.00,WUHU21636XXSP,2013-06-15 15:30:00,
2013-06-15 08:31:00,56.8,50.9,30.01,NNW,337,6.0,6.0,80,0.00,,,0.00,WUHU21636XXSP,2013-06-15 15:31:00,
2013-06-15 08:33:00,56.8,50.5,30.01,North,0,8.9,12.9,79,0.00,,,0.00,WUHU21636XXSP,2013-06-15 15:33:00,
2013-06-15 08:35:00,56.8,50.9,30.00,NNW,348,4.9,12.9,80,0.00,,,0.00,WUHU21636XXSP,2013-06-15 15:35:00,
2013-06-15 08:36:00,56.8,50.9,30.01,NNW,348,3.6,12.9,80,0.00,,,0.00,WUHU21636XXSP,2013-06-15 15:36:00,
2013-06-15 08:38:00,57.0,51.1,30.01,North,0,4.0,12.9,80,0.00,,,0.00,WUHU21636XXSP,2013-06-15 15:38:00,
2013-06-15 08:39:00,57.0,51.1,30.01,North,0,5.1,12.9,80,0.00,,,0.00,WUHU21636XXSP,2013-06-15 15:39:00,
2013-06-15 08:40:00,57.2,51.2,30.01,NNW,337,5.5,12.9,80,0.00,,,0.00,WUHU21636XXSP,2013-06-15 15:40:00,
2013-06-15 08:41:00,57.2,51.2,30.01,North,351,4.3,12.9,80,0.00,,,0.00,WUHU21636XXSP,2013-06-15 15:41:00,
2013-06-15 08:43:00,57.4,51.1,30.01,NNE,17,2.7,8.9,79,0.00,,,0.00,WUHU21636XXSP,2013-06-15 15:43:00,
2013-06-15 08:44:00,57.4,51.1,30.01,NE,37,2.5,8.5,79,0.00,,,0.00,WUHU21636XXSP,2013-06-15 15:44:00,
2013-06-15 08:45:00,57.6,51.3,30.01,North,0,4.4,8.5,79,0.00,,,0.00,WUHU21636XXSP,2013-06-15 15:45:00,
2013-06-15 08:46:00,57.6,51.3,30.01,North,0,4.4,8.5,79,0.00,,,0.00,WUHU21636XXSP,2013-06-15 15:46:00,
2013-06-15 08:48:00,57.7,51.1,30.01,NNW,346,6.1,9.6,78,0.00,,,0.00,WUHU21636XXSP,2013-06-15 15:48:00,
2013-06-15 08:49:00,57.7,51.1,30.01,North,353,5.0,9.6,78,0.00,,,0.00,WUHU21636XXSP,2013-06-15 15:49:00,
2013-06-15 08:50:00,57.7,51.1,30.01,North,0,4.4,9.6,78,0.00,,,0.00,WUHU21636XXSP,2013-06-15 15:50:00,
2013-06-15 08:51:00,57.9,51.2,30.01,North,10,4.6,9.6,78,0.00,,,0.00,WUHU21636XXSP,2013-06-15 15:51:00,
2013-06-15 08:53:00,58.1,51.4,30.01,NE,45,4.2,9.6,78,0.00,,,0.00,WUHU21636XXSP,2013-06-15 15:53:00,
2013-06-15 08:54:00,58.1,51.4,30.01,NE,45,4.2,9.6,78,0.00,,,0.00,WUHU21636XXSP,2013-06-15 15:54:00,
2013-06-15 08:56:00,58.1,51.4,30.01,NE,35,2.5,9.6,78,0.00,,,0.00,WUHU21636XXSP,2013-06-15 15:56:00,
2013-06-15 08:58:00,58.3,51.3,30.01,ESE,112,3.1,6.7,77,0.00,,,0.00,WUHU21636XXSP,2013-06-15 15:58:00,
2013-06-15 08:59:00,58.3,51.3,30.01,ESE,112,3.1,6.7,77,0.00,,,0.00,WUHU21636XXSP,2013-06-15 15:59:00,
2013-06-15 09:01:00,58.3,51.3,30.01,NNE,22,0.0,4.2,77,0.00,,,0.00,WUHU21636XXSP,2013-06-15 16:01:00,
2013-06-15 09:02:00,58.6,51.6,30.01,North,0,2.6,4.2,77,0.00,,,0.00,WUHU21636XXSP,2013-06-15 16:02:00,
2013-06-15 09:03:00,58.6,51.6,30.01,North,0,2.6,4.2,77,0.00,,,0.00,WUHU21636XXSP,2013-06-15 16:03:00,
2013-06-15 09:04:00,58.8,51.8,30.01,North,0,3.8,4.2,77,0.00,,,0.00,WUHU21636XXSP,2013-06-15 16:04:00,
2013-06-15 09:05:00,58.8,51.8,30.01,North,0,3.8,4.2,77,0.00,,,0.00,WUHU21636XXSP,2013-06-15 16:05:00,
2013-06-15 09:07:00,59.0,52.0,30.01,North,0,6.2,7.8,77,0.00,,,0.00,WUHU21636XXSP,2013-06-15 16:07:00,
2013-06-15 09:09:00,59.0,52.0,30.01,NNW,337,7.1,12.3,77,0.00,,,0.00,WUHU21636XXSP,2013-06-15 16:09:00,
2013-06-15 09:10:00,59.0,51.6,30.01,NNW,347,6.3,12.3,76,0.00,,,0.00,WUHU21636XXSP,2013-06-15 16:10:00,
2013-06-15 09:12:00,59.0,52.0,30.01,North,0,3.1,12.3,77,0.00,,,0.00,WUHU21636XXSP,2013-06-15 16:12:00,
2013-06-15 09:14:00,59.0,52.0,30.01,NW,315,0.0,12.3,77,0.00,,,0.00,WUHU21636XXSP,2013-06-15 16:14:00,
2013-06-15 09:15:00,59.2,52.2,30.00,NNW,337,4.9,12.3,77,0.00,,,0.00,WUHU21636XXSP,2013-06-15 16:15:00,
2013-06-15 09:17:00,59.2,51.8,30.00,North,349,4.3,12.3,76,0.00,,,0.00,WUHU21636XXSP,2013-06-15 16:17:00,
2013-06-15 09:19:00,59.5,51.7,30.01,North,0,5.1,5.3,75,0.00,,,0.00,WUHU21636XXSP,2013-06-15 16:19:00,
2013-06-15 09:20:00,59.5,51.7,30.01,North,0,5.1,5.3,75,0.00,,,0.00,WUHU21636XXSP,2013-06-15 16:20:00,
2013-06-15 09:21:00,59.5,51.7,30.01,NNE,22,7.6,8.0,75,0.00,,,0.00,WUHU21636XXSP,2013-06-15 16:21:00,
2013-06-15 09:22:00,59.7,51.9,30.00,NNE,15,4.8,8.0,75,0.00,,,0.00,WUHU21636XXSP,2013-06-15 16:22:00,
2013-06-15 09:24:00,59.9,51.4,30.00,NE,45,5.8,10.9,73,0.00,,,0.00,WUHU21636XXSP,2013-06-15 16:24:00,
2013-06-15 09:25:00,59.7,51.2,30.00,NNE,33,4.9,10.9,73,0.00,,,0.00,WUHU21636XXSP,2013-06-15 16:25:00,
2013-06-15 09:26:00,59.7,51.2,30.00,NE,41,5.4,10.9,73,0.00,,,0.00,WUHU21636XXSP,2013-06-15 16:26:00,
2013-06-15 09:27:00,60.1,52.0,30.00,ENE,67,3.1,10.9,74,0.00,,,0.00,WUHU21636XXSP,2013-06-15 16:27:00,
2013-06-15 09:29:00,60.4,52.2,30.00,SSE,157,2.2,10.9,74,0.00,,,0.00,WUHU21636XXSP,2013-06-15 16:29:00,
2013-06-15 09:30:00,60.4,52.2,30.00,SSE,157,2.2,10.9,74,0.00,,,0.00,WUHU21636XXSP,2013-06-15 16:30:00,
2013-06-15 09:31:00,60.4,52.2,30.00,SSE,157,2.2,10.9,74,0.00,,,0.00,WUHU21636XXSP,2013-06-15 16:31:00,
2013-06-15 09:32:00,60.8,52.3,30.00,SSE,157,2.2,10.9,73,0.00,,,0.00,WUHU21636XXSP,2013-06-15 16:32:00,
2013-06-15 09:34:00,61.2,52.3,30.00,ESE,112,2.2,5.8,72,0.00,,,0.00,WUHU21636XXSP,2013-06-15 16:34:00,
2013-06-15 09:36:00,61.3,52.0,30.00,ESE,112,2.2,3.1,71,0.00,,,0.00,WUHU21636XXSP,2013-06-15 16:36:00,
2013-06-15 09:37:00,61.3,52.0,30.00,ESE,112,2.2,2.2,71,0.00,,,0.00,WUHU21636XXSP,2013-06-15 16:37:00,
2013-06-15 09:40:00,61.7,52.4,30.00,North,4,7.9,11.1,71,0.00,,,0.00,WUHU21636XXSP,2013-06-15 16:40:00,
2013-06-15 09:41:00,61.7,52.0,30.00,NNE,12,6.0,11.1,70,0.00,,,0.00,WUHU21636XXSP,2013-06-15 16:41:00,
2013-06-15 09:42:00,61.7,52.0,30.00,North,0,4.0,11.1,70,0.00,,,0.00,WUHU21636XXSP,2013-06-15 16:42:00,
2013-06-15 09:45:00,61.9,52.6,30.00,NNE,22,6.2,11.1,71,0.00,,,0.00,WUHU21636XXSP,2013-06-15 16:45:00,
2013-06-15 09:46:00,61.9,52.2,30.00,NNE,15,5.5,11.1,70,0.00,,,0.00,WUHU21636XXSP,2013-06-15 16:46:00,
2013-06-15 09:47:00,61.9,52.2,29.99,North,0,2.3,11.1,70,0.00,,,0.00,WUHU21636XXSP,2013-06-15 16:47:00,
2013-06-15 09:48:00,61.9,52.2,29.99,North,0,2.0,11.1,70,0.00,,,0.00,WUHU21636XXSP,2013-06-15 16:48:00,
2013-06-15 09:50:00,62.2,52.5,30.00,SSW,202,1.2,7.6,70,0.00,,,0.00,WUHU21636XXSP,2013-06-15 16:50:00,
2013-06-15 09:51:00,62.2,52.5,30.00,SSW,202,1.1,7.6,70,0.00,,,0.00,WUHU21636XXSP,2013-06-15 16:51:00,
2013-06-15 09:53:00,62.2,52.5,29.99,NNE,22,2.0,7.6,70,0.00,,,0.00,WUHU21636XXSP,2013-06-15 16:53:00,
2013-06-15 09:55:00,62.2,52.5,29.99,ENE,67,3.8,7.8,70,0.00,,,0.00,WUHU21636XXSP,2013-06-15 16:55:00,
2013-06-15 09:56:00,62.2,52.5,29.99,North,4,3.4,7.8,70,0.00,,,0.00,WUHU21636XXSP,2013-06-15 16:56:00,
2013-06-15 09:58:00,62.4,52.6,29.99,ENE,67,6.2,7.8,70,0.00,,,0.00,WUHU21636XXSP,2013-06-15 16:58:00,
2013-06-15 09:59:00,62.4,52.2,29.99,NNE,22,4.9,7.8,69,0.00,,,0.00,WUHU21636XXSP,2013-06-15 16:59:00,
2013-06-15 10:01:00,62.2,52.5,29.99,NNE,25,3.5,7.8,70,0.00,,,0.00,WUHU21636XXSP,2013-06-15 17:01:00,
2013-06-15 10:02:00,62.2,52.5,29.99,SE,135,1.7,7.8,70,0.00,,,0.00,WUHU21636XXSP,2013-06-15 17:02:00,
2013-06-15 10:03:00,62.4,52.6,29.99,SE,135,1.7,7.8,70,0.00,,,0.00,WUHU21636XXSP,2013-06-15 17:03:00,
2013-06-15 10:04:00,62.4,52.6,29.99,SE,135,1.7,7.8,70,0.00,,,0.00,WUHU21636XXSP,2013-06-15 17:04:00,
2013-06-15 10:06:00,63.0,53.2,29.99,NE,45,3.3,7.6,70,0.00,,,0.00,WUHU21636XXSP,2013-06-15 17:06:00,
2013-06-15 10:07:00,63.1,52.9,29.99,NE,38,3.2,7.6,69,0.00,,,0.00,WUHU21636XXSP,2013-06-15 17:07:00,
2013-06-15 10:09:00,63.3,52.7,29.99,NW,315,2.9,7.6,68,0.00,,,0.00,WUHU21636XXSP,2013-06-15 17:09:00,
2013-06-15 10:12:00,63.3,52.7,29.99,NE,45,4.6,4.6,68,0.00,,,0.00,WUHU21636XXSP,2013-06-15 17:12:00,
2013-06-15 10:14:00,63.3,52.7,29.99,NE,45,2.6,4.6,68,0.00,,,0.00,WUHU21636XXSP,2013-06-15 17:14:00,
2013-06-15 10:17:00,63.3,52.7,29.99,ESE,112,5.1,5.1,68,0.00,,,0.00,WUHU21636XXSP,2013-06-15 17:17:00,
2013-06-15 10:18:00,63.5,52.9,29.99,ESE,112,5.1,5.1,68,0.00,,,0.00,WUHU21636XXSP,2013-06-15 17:18:00,
2013-06-15 10:19:00,63.5,52.9,29.99,ESE,112,0.0,5.1,68,0.00,,,0.00,WUHU21636XXSP,2013-06-15 17:19:00,
2013-06-15 10:22:00,63.5,52.5,29.99,North,11,6.5,11.6,67,0.00,,,0.00,WUHU21636XXSP,2013-06-15 17:22:00,
2013-06-15 10:23:00,63.7,52.7,29.99,NNE,18,5.3,11.6,67,0.00,,,0.00,WUHU21636XXSP,2013-06-15 17:23:00,
2013-06-15 10:24:00,63.7,52.7,29.99,NNE,22,2.6,11.6,67,0.00,,,0.00,WUHU21636XXSP,2013-06-15 17:24:00,
2013-06-15 10:25:00,63.7,52.7,29.99,NNE,22,2.5,11.6,67,0.00,,,0.00,WUHU21636XXSP,2013-06-15 17:25:00,
2013-06-15 10:27:00,63.9,52.9,29.99,NE,45,2.0,11.6,67,0.00,,,0.00,WUHU21636XXSP,2013-06-15 17:27:00,
2013-06-15 10:28:00,63.7,52.3,29.99,NE,45,3.5,11.6,66,0.00,,,0.00,WUHU21636XXSP,2013-06-15 17:28:00,
2013-06-15 10:30:00,63.7,52.3,29.98,NE,45,3.5,11.6,66,0.00,,,0.00,WUHU21636XXSP,2013-06-15 17:30:00,
2013-06-15 10:32:00,64.0,52.5,29.99,NE,38,5.1,11.6,66,0.00,,,0.00,WUHU21636XXSP,2013-06-15 17:32:00,
2013-06-15 10:33:00,64.0,52.5,29.99,ENE,61,3.5,11.6,66,0.00,,,0.00,WUHU21636XXSP,2013-06-15 17:33:00,
2013-06-15 10:35:00,64.0,52.1,29.99,North,0,3.1,11.6,65,0.00,,,0.00,WUHU21636XXSP,2013-06-15 17:35:00,
2013-06-15 10:37:00,64.0,52.1,29.98,NNW,337,5.3,11.6,65,0.00,,,0.00,WUHU21636XXSP,2013-06-15 17:37:00,
2013-06-15 10:38:00,64.0,52.1,29.98,NNW,337,5.3,11.6,65,0.00,,,0.00,WUHU21636XXSP,2013-06-15 17:38:00,
2013-06-15 10:40:00,64.0,52.1,29.99,NNE,18,4.3,10.9,65,0.00,,,0.00,WUHU21636XXSP,2013-06-15 17:40:00,
2013-06-15 10:42:00,64.2,52.3,29.98,ENE,76,2.8,9.6,65,0.00,,,0.00,WUHU21636XXSP,2013-06-15 17:42:00,
2013-06-15 10:43:00,64.2,52.3,29.98,ENE,77,3.1,9.6,65,0.00,,,0.00,WUHU21636XXSP,2013-06-15 17:43:00,
2013-06-15 10:45:00,64.2,52.3,29.98,North,0,7.6,9.8,65,0.00,,,0.00,WUHU21636XXSP,2013-06-15 17:45:00,
2013-06-15 10:46:00,64.2,52.3,29.98,North,0,7.6,9.8,65,0.00,,,0.00,WUHU21636XXSP,2013-06-15 17:46:00,
2013-06-15 10:47:00,64.2,52.3,29.98,NNE,21,4.1,9.8,65,0.00,,,0.00,WUHU21636XXSP,2013-06-15 17:47:00,
2013-06-15 10:48:00,64.2,52.3,29.98,NNE,22,3.2,9.8,65,0.00,,,0.00,WUHU21636XXSP,2013-06-15 17:48:00,
2013-06-15 10:50:00,64.4,52.5,29.98,North,0,3.1,9.8,65,0.00,,,0.00,WUHU21636XXSP,2013-06-15 17:50:00,
2013-06-15 10:51:00,64.4,52.5,29.98,North,0,3.1,9.8,65,0.00,,,0.00,WUHU21636XXSP,2013-06-15 17:51:00,
2013-06-15 10:53:00,64.8,52.9,29.98,NNE,22,4.9,9.8,65,0.00,,,0.00,WUHU21636XXSP,2013-06-15 17:53:00,
2013-06-15 10:54:00,64.8,52.9,29.98,NNE,22,4.9,9.8,65,0.00,,,0.00,WUHU21636XXSP,2013-06-15 17:54:00,
2013-06-15 10:55:00,64.9,53.0,29.99,NNE,22,4.9,9.3,65,0.00,,,0.00,WUHU21636XXSP,2013-06-15 17:55:00,
2013-06-15 10:56:00,65.1,53.2,29.98,NNE,22,2.6,8.0,65,0.00,,,0.00,WUHU21636XXSP,2013-06-15 17:56:00,
2013-06-15 10:58:00,65.1,53.2,29.98,NNE,22,2.6,4.9,65,0.00,,,0.00,WUHU21636XXSP,2013-06-15 17:58:00,
2013-06-15 10:59:00,65.1,52.7,29.99,North,0,4.4,4.9,64,0.00,,,0.00,WUHU21636XXSP,2013-06-15 17:59:00,
2013-06-15 11:01:00,65.1,52.7,29.98,North,2,3.5,4.9,64,0.00,,,0.00,WUHU21636XXSP,2013-06-15 18:01:00,
2013-06-15 11:02:00,65.1,52.7,29.98,NNE,16,1.6,4.9,64,0.00,,,0.00,WUHU21636XXSP,2013-06-15 18:02:00,
2013-06-15 11:03:00,65.1,52.3,29.98,ESE,112,5.1,5.1,63,0.00,,,0.00,WUHU21636XXSP,2013-06-15 18:03:00,
2013-06-15 11:04:00,65.1,52.3,29.98,ESE,112,5.1,5.1,63,0.00,,,0.00,WUHU21636XXSP,2013-06-15 18:04:00,
2013-06-15 11:06:00,65.3,52.5,29.98,NNE,18,5.9,11.1,63,0.00,,,0.00,WUHU21636XXSP,2013-06-15 18:06:00,
2013-06-15 11:07:00,65.3,52.5,29.98,NE,45,1.9,11.1,63,0.00,,,0.00,WUHU21636XXSP,2013-06-15 18:07:00,
2013-06-15 11:08:00,65.1,53.2,29.98,NE,45,4.9,11.1,65,0.00,,,0.00,WUHU21636XXSP,2013-06-15 18:08:00,
2013-06-15 11:09:00,65.1,53.2,29.98,NE,45,4.9,11.1,65,0.00,,,0.00,WUHU21636XXSP,2013-06-15 18:09:00,
2013-06-15 11:11:00,65.5,53.1,29.98,NE,45,4.9,11.1,64,0.00,,,0.00,WUHU21636XXSP,2013-06-15 18:11:00,
2013-06-15 11:13:00,65.5,53.5,29.98,NE,45,2.9,11.1,65,0.00,,,0.00,WUHU21636XXSP,2013-06-15 18:13:00,
2013-06-15 11:14:00,65.5,53.5,29.98,NE,45,2.9,11.1,65,0.00,,,0.00,WUHU21636XXSP,2013-06-15 18:14:00,
2013-06-15 11:16:00,65.7,53.7,29.98,SE,135,3.1,4.9,65,0.00,,,0.00,WUHU21636XXSP,2013-06-15 18:16:00,
2013-06-15 11:18:00,65.8,52.9,29.98,NE,45,5.8,8.5,63,0.00,,,0.00,WUHU21636XXSP,2013-06-15 18:18:00,
2013-06-15 11:19:00,65.8,52.9,29.98,NE,45,2.5,8.5,63,0.00,,,0.00,WUHU21636XXSP,2013-06-15 18:19:00,
2013-06-15 11:21:00,65.7,53.7,29.98,NE,45,1.1,8.5,65,0.00,,,0.00,WUHU21636XXSP,2013-06-15 18:21:00,
2013-06-15 11:23:00,66.0,54.0,29.98,ENE,67,0.0,8.5,65,0.00,,,0.00,WUHU21636XXSP,2013-06-15 18:23:00,
2013-06-15 11:24:00,66.4,54.0,29.98,NNE,22,2.6,8.5,64,0.00,,,0.00,WUHU21636XXSP,2013-06-15 18:24:00,
2013-06-15 11:25:00,66.4,54.0,29.98,NNE,22,2.6,8.5,64,0.00,,,0.00,WUHU21636XXSP,2013-06-15 18:25:00,
2013-06-15 11:26:00,66.4,54.0,29.98,NNE,22,2.6,8.5,64,0.00,,,0.00,WUHU21636XXSP,2013-06-15 18:26:00,
2013-06-15 11:28:00,66.0,53.1,29.98,NNE,24,4.6,8.2,63,0.00,,,0.00,WUHU21636XXSP,2013-06-15 18:28:00,
2013-06-15 11:29:00,66.0,53.1,29.98,NNE,29,4.4,8.2,63,0.00,,,0.00,WUHU21636XXSP,2013-06-15 18:29:00,
2013-06-15 11:30:00,66.0,53.1,29.98,NE,45,2.4,8.2,63,0.00,,,0.00,WUHU21636XXSP,2013-06-15 18:30:00,
2013-06-15 11:31:00,66.0,53.1,29.98,North,1,6.2,12.7,63,0.00,,,0.00,WUHU21636XXSP,2013-06-15 18:31:00,
2013-06-15 11:33:00,65.8,52.5,29.98,East,98,1.1,12.7,62,0.00,,,0.00,WUHU21636XXSP,2013-06-15 18:33:00,
2013-06-15 11:34:00,65.8,52.5,29.98,ESE,112,0.8,12.7,62,0.00,,,0.00,WUHU21636XXSP,2013-06-15 18:34:00,
2013-06-15 11:35:00,66.0,53.1,29.98,NNE,22,5.1,12.7,63,0.00,,,0.00,WUHU21636XXSP,2013-06-15 18:35:00,
2013-06-15 11:36:00,66.0,53.1,29.98,NNE,18,4.0,12.7,63,0.00,,,0.00,WUHU21636XXSP,2013-06-15 18:36:00,
2013-06-15 11:38:00,66.0,53.1,29.98,North,0,7.3,12.7,63,0.00,,,0.00,WUHU21636XXSP,2013-06-15 18:38:00,
2013-06-15 11:39:00,66.0,52.7,29.98,North,3,6.0,12.7,62,0.00,,,0.00,WUHU21636XXSP,2013-06-15 18:39:00,
2013-06-15 11:41:00,66.0,52.7,29.98,North,0,8.9,14.3,62,0.00,,,0.00,WUHU21636XXSP,2013-06-15 18:41:00,
2013-06-15 11:44:00,65.8,52.5,29.99,North,0,9.8,17.2,62,0.00,,,0.00,WUHU21636XXSP,2013-06-15 18:44:00,
2013-06-15 11:45:00,65.8,52.5,29.99,North,1,9.4,17.2,62,0.00,,,0.00,WUHU21636XXSP,2013-06-15 18:45:00,
2013-06-15 11:46:00,65.8,52.9,29.98,North,2,5.2,17.2,63,0.00,,,0.00,WUHU21636XXSP,2013-06-15 18:46:00,
2013-06-15 11:47:00,65.8,52.9,29.99,North,9,2.9,17.2,63,0.00,,,0.00,WUHU21636XXSP,2013-06-15 18:47:00,
2013-06-15 11:49:00,65.7,53.3,29.98,NNE,12,7.5,17.4,64,0.00,,,0.00,WUHU21636XXSP,2013-06-15 18:49:00,
2013-06-15 11:50:00,65.5,53.1,29.98,North,9,8.8,17.4,64,0.00,,,0.00,WUHU21636XXSP,2013-06-15 18:50:00,
2013-06-15 11:51:00,65.7,53.3,29.99,North,0,7.3,17.4,64,0.00,,,0.00,WUHU21636XXSP,2013-06-15 18:51:00,
2013-06-15 11:52:00,65.5,53.1,29.99,North,0,8.7,17.4,64,0.00,,,0.00,WUHU21636XXSP,2013-06-15 18:52:00,
2013-06-15 11:54:00,65.5,52.7,29.99,North,0,8.0,17.4,63,0.00,,,0.00,WUHU21636XXSP,2013-06-15 18:54:00,
2013-06-15 11:55:00,65.5,52.7,29.99,North,10,7.8,17.4,63,0.00,,,0.00,WUHU21636XXSP,2013-06-15 18:55:00,
2013-06-15 11:56:00,65.5,52.7,29.98,NNE,26,4.1,17.4,63,0.00,,,0.00,WUHU21636XXSP,2013-06-15 18:56:00,
2013-06-15 11:58:00,65.5,52.7,29.99,North,0,4.4,17.4,63,0.00,,,0.00,WUHU21636XXSP,2013-06-15 18:58:00,
2013-06-15 11:59:00,65.5,52.7,29.99,North,0,4.4,15.4,63,0.00,,,0.00,WUHU21636XXSP,2013-06-15 18:59:00,
2013-06-15 12:00:00,65.5,52.7,29.99,North,0,4.4,15.4,63,0.00,,,0.00,WUHU21636XXSP,2013-06-15 19:00:00,
2013-06-15 12:02:00,65.7,52.9,29.99,North,0,4.0,15.4,63,0.00,,,0.00,WUHU21636XXSP,2013-06-15 19:02:00,
2013-06-15 12:03:00,65.8,52.5,29.99,North,0,4.4,12.7,62,0.00,,,0.00,WUHU21636XXSP,2013-06-15 19:03:00,
2013-06-15 12:05:00,65.8,52.5,29.98,NE,41,4.0,8.2,62,0.00,,,0.00,WUHU21636XXSP,2013-06-15 19:05:00,
2013-06-15 12:07:00,66.0,52.7,29.98,North,351,6.3,10.2,62,0.00,,,0.00,WUHU21636XXSP,2013-06-15 19:07:00,
2013-06-15 12:08:00,66.2,51.9,29.98,North,0,10.2,14.7,60,0.00,,,0.00,WUHU21636XXSP,2013-06-15 19:08:00,
2013-06-15 12:10:00,66.0,51.8,29.99,NNW,344,4.9,14.7,60,0.00,,,0.00,WUHU21636XXSP,2013-06-15 19:10:00,
2013-06-15 12:12:00,66.0,52.2,29.98,North,8,2.2,14.7,61,0.00,,,0.00,WUHU21636XXSP,2013-06-15 19:12:00,
2013-06-15 12:13:00,65.8,52.0,29.98,NE,45,4.2,14.7,61,0.00,,,0.00,WUHU21636XXSP,2013-06-15 19:13:00,
2013-06-15 12:15:00,66.0,52.2,29.98,North,0,4.4,14.7,61,0.00,,,0.00,WUHU21636XXSP,2013-06-15 19:15:00,
2013-06-15 12:17:00,66.0,51.8,29.98,North,2,4.0,14.7,60,0.00,,,0.00,WUHU21636XXSP,2013-06-15 19:17:00,
2013-06-15 12:18:00,66.0,51.8,29.98,North,11,3.1,11.8,60,0.00,,,0.00,WUHU21636XXSP,2013-06-15 19:18:00,
2013-06-15 12:20:00,66.4,52.1,29.98,North,0,3.8,4.4,60,0.00,,,0.00,WUHU21636XXSP,2013-06-15 19:20:00,
2013-06-15 12:22:00,66.6,52.3,29.98,North,0,3.8,4.4,60,0.00,,,0.00,WUHU21636XXSP,2013-06-15 19:22:00,
2013-06-15 12:23:00,66.6,52.3,29.98,North,0,3.8,4.4,60,0.00,,,0.00,WUHU21636XXSP,2013-06-15 19:23:00,
2013-06-15 12:25:00,66.7,51.4,29.98,NE,40,2.5,6.2,58,0.00,,,0.00,WUHU21636XXSP,2013-06-15 19:25:00,
2013-06-15 12:26:00,66.7,51.4,29.98,NNE,30,2.4,6.2,58,0.00,,,0.00,WUHU21636XXSP,2013-06-15 19:26:00,
2013-06-15 12:27:00,67.1,52.3,29.98,NNE,22,2.2,6.2,59,0.00,,,0.00,WUHU21636XXSP,2013-06-15 19:27:00,
2013-06-15 12:28:00,67.1,52.3,29.98,NNE,22,2.2,6.2,59,0.00,,,0.00,WUHU21636XXSP,2013-06-15 19:28:00,
2013-06-15 12:31:00,67.6,51.8,29.98,NNE,22,11.6,12.3,57,0.00,,,0.00,WUHU21636XXSP,2013-06-15 19:31:00,
2013-06-15 12:32:00,67.8,51.5,29.98,NNE,15,5.7,12.3,56,0.00,,,0.00,WUHU21636XXSP,2013-06-15 19:32:00,
2013-06-15 12:33:00,67.8,51.5,29.98,NNE,19,4.7,12.3,56,0.00,,,0.00,WUHU21636XXSP,2013-06-15 19:33:00,
2013-06-15 12:34:00,67.8,52.0,29.98,NNE,22,4.6,12.3,57,0.00,,,0.00,WUHU21636XXSP,2013-06-15 19:34:00,
2013-06-15 12:36:00,68.2,52.4,29.98,NNE,22,4.5,12.3,57,0.00,,,0.00,WUHU21636XXSP,2013-06-15 19:36:00,
2013-06-15 12:37:00,68.2,52.4,29.98,East,89,1.4,12.3,57,0.00,,,0.00,WUHU21636XXSP,2013-06-15 19:37:00,
2013-06-15 12:38:00,68.5,52.6,29.98,ESE,112,1.1,12.3,57,0.00,,,0.00,WUHU21636XXSP,2013-06-15 19:38:00,
2013-06-15 12:39:00,68.5,52.6,29.98,ESE,112,1.1,12.3,57,0.00,,,0.00,WUHU21636XXSP,2013-06-15 19:39:00,
2013-06-15 12:41:00,68.5,52.6,29.98,North,0,3.3,7.1,57,0.00,,,0.00,WUHU21636XXSP,2013-06-15 19:41:00,
2013-06-15 12:42:00,68.7,52.8,29.98,North,0,7.3,8.0,57,0.00,,,0.00,WUHU21636XXSP,2013-06-15 19:42:00,
2013-06-15 12:43:00,68.7,52.8,29.98,North,0,4.4,8.0,57,0.00,,,0.00,WUHU21636XXSP,2013-06-15 19:43:00,
2013-06-15 12:44:00,68.7,52.8,29.98,North,0,3.7,8.0,57,0.00,,,0.00,WUHU21636XXSP,2013-06-15 19:44:00,
2013-06-15 12:46:00,68.7,53.3,29.98,North,9,1.5,8.0,58,0.00,,,0.00,WUHU21636XXSP,2013-06-15 19:46:00,
2013-06-15 12:48:00,68.9,52.0,29.98,NE,45,7.6,12.9,55,0.00,,,0.00,WUHU21636XXSP,2013-06-15 19:48:00,
2013-06-15 12:49:00,68.7,52.3,29.98,NNE,15,4.2,12.9,56,0.00,,,0.00,WUHU21636XXSP,2013-06-15 19:49:00,
2013-06-15 12:50:00,68.7,52.3,29.98,NNE,16,1.2,12.9,56,0.00,,,0.00,WUHU21636XXSP,2013-06-15 19:50:00,
2013-06-15 12:51:00,68.4,52.0,29.98,North,0,6.7,12.9,56,0.00,,,0.00,WUHU21636XXSP,2013-06-15 19:51:00,
2013-06-15 12:53:00,68.2,51.8,29.98,NNE,24,5.3,14.7,56,0.00,,,0.00,WUHU21636XXSP,2013-06-15 19:53:00,
2013-06-15 12:54:00,68.2,51.8,29.98,NE,49,4.5,14.7,56,0.00,,,0.00,WUHU21636XXSP,2013-06-15 19:54:00,
2013-06-15 12:55:00,67.8,51.5,29.98,ENE,67,3.1,14.7,56,0.00,,,0.00,WUHU21636XXSP,2013-06-15 19:55:00,
2013-06-15 12:56:00,67.8,51.5,29.98,ENE,67,3.1,14.7,56,0.00,,,0.00,WUHU21636XXSP,2013-06-15 19:56:00,
2013-06-15 12:57:00,67.6,52.3,29.98,North,0,7.6,14.7,58,0.00,,,0.00,WUHU21636XXSP,2013-06-15 19:57:00,
2013-06-15 12:59:00,67.6,51.8,29.98,North,5,5.7,14.7,57,0.00,,,0.00,WUHU21636XXSP,2013-06-15 19:59:00,
2013-06-15 13:00:00,67.8,52.5,29.98,North,5,4.1,14.7,58,0.00,,,0.00,WUHU21636XXSP,2013-06-15 20:00:00,
2013-06-15 13:01:00,67.8,52.5,29.98,NNE,25,3.1,9.1,58,0.00,,,0.00,WUHU21636XXSP,2013-06-15 20:01:00,
2013-06-15 13:02:00,67.8,52.5,29.98,NE,40,2.5,9.1,58,0.00,,,0.00,WUHU21636XXSP,2013-06-15 20:02:00,
2013-06-15 13:04:00,68.5,52.1,29.98,North,0,5.1,9.3,56,0.00,,,0.00,WUHU21636XXSP,2013-06-15 20:04:00,
2013-06-15 13:06:00,68.5,51.6,29.98,North,5,2.3,9.3,55,0.00,,,0.00,WUHU21636XXSP,2013-06-15 20:06:00,
2013-06-15 13:07:00,68.5,52.6,29.98,ESE,112,6.2,9.3,57,0.00,,,0.00,WUHU21636XXSP,2013-06-15 20:07:00,
2013-06-15 13:09:00,68.9,53.0,29.98,NNE,29,2.8,9.3,57,0.00,,,0.00,WUHU21636XXSP,2013-06-15 20:09:00,
2013-06-15 13:11:00,68.9,52.0,29.98,North,0,5.5,9.3,55,0.00,,,0.00,WUHU21636XXSP,2013-06-15 20:11:00,
2013-06-15 13:12:00,68.9,52.0,29.98,NE,45,3.1,9.3,55,0.00,,,0.00,WUHU21636XXSP,2013-06-15 20:12:00,
2013-06-15 13:14:00,68.9,52.5,29.98,NE,45,3.1,8.5,56,0.00,,,0.00,WUHU21636XXSP,2013-06-15 20:14:00,
2013-06-15 13:15:00,69.1,52.2,29.98,NNW,337,10.2,11.4,55,0.00,,,0.00,WUHU21636XXSP,2013-06-15 20:15:00,
2013-06-15 13:16:00,69.1,52.2,29.98,NNW,337,8.4,11.4,55,0.00,,,0.00,WUHU21636XXSP,2013-06-15 20:16:00,
2013-06-15 13:17:00,68.9,52.5,29.98,NNW,342,6.8,11.4,56,0.00,,,0.00,WUHU21636XXSP,2013-06-15 20:17:00,
2013-06-15 13:19:00,68.7,52.3,29.98,NNE,22,1.3,11.4,56,0.00,,,0.00,WUHU21636XXSP,2013-06-15 20:19:00,
2013-06-15 13:20:00,68.7,52.3,29.98,NNE,22,1.3,11.4,56,0.00,,,0.00,WUHU21636XXSP,2013-06-15 20:20:00,
2013-06-15 13:21:00,68.7,52.3,29.97,NE,45,0.0,11.4,56,0.00,,,0.00,WUHU21636XXSP,2013-06-15 20:21:00,
2013-06-15 13:22:00,68.7,52.3,29.97,NE,45,0.0,11.4,56,0.00,,,0.00,WUHU21636XXSP,2013-06-15 20:22:00,
2013-06-15 13:25:00,68.7,52.3,29.98,WSW,247,0.0,11.4,56,0.00,,,0.00,WUHU21636XXSP,2013-06-15 20:25:00,
2013-06-15 13:26:00,68.5,52.6,29.97,North,0,0.8,10.2,57,0.00,,,0.00,WUHU21636XXSP,2013-06-15 20:26:00,
2013-06-15 13:27:00,68.5,52.6,29.97,North,0,0.8,1.3,57,0.00,,,0.00,WUHU21636XXSP,2013-06-15 20:27:00,
2013-06-15 13:30:00,68.5,52.6,29.98,North,6,3.0,7.8,57,0.00,,,0.00,WUHU21636XXSP,2013-06-15 20:30:00,
2013-06-15 13:31:00,68.5,52.6,29.97,NNE,22,2.0,7.8,57,0.00,,,0.00,WUHU21636XXSP,2013-06-15 20:31:00,
2013-06-15 13:32:00,68.5,53.1,29.98,ESE,112,3.1,7.8,58,0.00,,,0.00,WUHU21636XXSP,2013-06-15 20:32:00,
2013-06-15 13:33:00,68.5,53.1,29.98,ESE,112,3.1,7.8,58,0.00,,,0.00,WUHU21636XXSP,2013-06-15 20:33:00,
2013-06-15 13:35:00,69.1,52.7,29.97,NNE,26,5.2,10.0,56,0.00,,,0.00,WUHU21636XXSP,2013-06-15 20:35:00,
2013-06-15 13:36:00,69.1,52.7,29.98,NE,37,3.1,10.0,56,0.00,,,0.00,WUHU21636XXSP,2013-06-15 20:36:00,
2013-06-15 13:37:00,68.9,52.5,29.98,North,0,7.1,10.0,56,0.00,,,0.00,WUHU21636XXSP,2013-06-15 20:37:00,
2013-06-15 13:38:00,68.9,52.5,29.98,North,7,4.9,10.0,56,0.00,,,0.00,WUHU21636XXSP,2013-06-15 20:38:00,
2013-06-15 13:40:00,69.1,53.2,29.98,NNE,22,3.3,10.0,57,0.00,,,0.00,WUHU21636XXSP,2013-06-15 20:40:00,
2013-06-15 13:41:00,69.1,53.2,29.98,NNE,22,3.3,10.0,57,0.00,,,0.00,WUHU21636XXSP,2013-06-15 20:41:00,
2013-06-15 13:42:00,69.1,53.2,29.97,NNE,22,3.3,10.0,57,0.00,,,0.00,WUHU21636XXSP,2013-06-15 20:42:00,
2013-06-15 13:43:00,69.1,53.2,29.98,NNW,337,3.5,10.0,57,0.00,,,0.00,WUHU21636XXSP,2013-06-15 20:43:00,
2013-06-15 13:45:00,69.4,53.5,29.97,NNW,337,3.5,9.1,57,0.00,,,0.00,WUHU21636XXSP,2013-06-15 20:45:00,
2013-06-15 13:46:00,69.4,53.5,29.97,NNW,337,3.5,9.1,57,0.00,,,0.00,WUHU21636XXSP,2013-06-15 20:46:00,
2013-06-15 13:47:00,69.4,53.0,29.97,North,0,8.7,9.1,56,0.00,,,0.00,WUHU21636XXSP,2013-06-15 20:47:00,
2013-06-15 13:48:00,69.4,53.0,29.97,North,359,6.9,11.4,56,0.00,,,0.00,WUHU21636XXSP,2013-06-15 20:48:00,
2013-06-15 13:50:00,69.3,52.4,29.97,North,0,11.1,13.1,55,0.00,,,0.00,WUHU21636XXSP,2013-06-15 20:50:00,
2013-06-15 13:51:00,69.1,52.2,29.97,North,358,8.7,13.1,55,0.00,,,0.00,WUHU21636XXSP,2013-06-15 20:51:00,
2013-06-15 13:52:00,69.1,52.2,29.97,NW,322,3.5,13.1,55,0.00,,,0.00,WUHU21636XXSP,2013-06-15 20:52:00,
2013-06-15 13:53:00,69.1,52.2,29.97,NW,317,3.2,13.1,55,0.00,,,0.00,WUHU21636XXSP,2013-06-15 20:53:00,
2013-06-15 13:55:00,69.4,53.0,29.97,NNE,22,1.5,13.1,56,0.00,,,0.00,WUHU21636XXSP,2013-06-15 20:55:00,
2013-06-15 13:56:00,69.4,53.0,29.97,NNE,22,1.5,13.1,56,0.00,,,0.00,WUHU21636XXSP,2013-06-15 20:56:00,
2013-06-15 13:58:00,69.4,53.5,29.97,ESE,112,0.0,13.1,57,0.00,,,0.00,WUHU21636XXSP,2013-06-15 20:58:00,
2013-06-15 14:00:00,69.4,53.5,29.97,East,90,1.1,7.8,57,0.00,,,0.00,WUHU21636XXSP,2013-06-15 21:00:00,
2013-06-15 14:01:00,69.4,53.5,29.97,East,90,1.1,3.1,57,0.00,,,0.00,WUHU21636XXSP,2013-06-15 21:01:00,
2013-06-15 14:03:00,69.4,53.0,29.97,NE,45,6.9,10.5,56,0.00,,,0.00,WUHU21636XXSP,2013-06-15 21:03:00,
2013-06-15 14:04:00,69.4,53.0,29.97,NNE,15,7.5,10.5,56,0.00,,,0.00,WUHU21636XXSP,2013-06-15 21:04:00,
2013-06-15 14:06:00,69.4,53.0,29.97,North,10,4.3,10.5,56,0.00,,,0.00,WUHU21636XXSP,2013-06-15 21:06:00,
2013-06-15 14:08:00,69.4,53.0,29.98,North,0,7.3,10.5,56,0.00,,,0.00,WUHU21636XXSP,2013-06-15 21:08:00,
2013-06-15 14:09:00,69.4,53.0,29.98,North,10,5.9,10.5,56,0.00,,,0.00,WUHU21636XXSP,2013-06-15 21:09:00,
2013-06-15 14:11:00,69.4,53.0,29.97,NE,40,3.2,10.5,56,0.00,,,0.00,WUHU21636XXSP,2013-06-15 21:11:00,
2013-06-15 14:13:00,69.6,53.2,29.97,North,0,4.2,9.3,56,0.00,,,0.00,WUHU21636XXSP,2013-06-15 21:13:00,
2013-06-15 14:14:00,69.6,53.2,29.97,North,0,4.2,9.3,56,0.00,,,0.00,WUHU21636XXSP,2013-06-15 21:14:00,
2013-06-15 14:16:00,69.6,53.2,29.97,NNE,22,5.8,9.3,56,0.00,,,0.00,WUHU21636XXSP,2013-06-15 21:16:00,
2013-06-15 14:18:00,69.6,52.6,29.97,North,4,5.9,11.8,55,0.00,,,0.00,WUHU21636XXSP,2013-06-15 21:18:00,
2013-06-15 14:19:00,69.6,53.2,29.97,North,1,5.8,11.8,56,0.00,,,0.00,WUHU21636XXSP,2013-06-15 21:19:00,
2013-06-15 14:21:00,69.4,52.5,29.98,North,6,4.7,11.8,55,0.00,,,0.00,WUHU21636XXSP,2013-06-15 21:21:00,
2013-06-15 14:24:00,69.4,53.0,29.97,North,359,3.7,11.8,56,0.00,,,0.00,WUHU21636XXSP,2013-06-15 21:24:00,
2013-06-15 14:26:00,69.6,53.7,29.97,North,0,0.4,10.9,57,0.00,,,0.00,WUHU21636XXSP,2013-06-15 21:26:00,
2013-06-15 14:27:00,69.6,53.7,29.97,North,0,0.4,10.9,57,0.00,,,0.00,WUHU21636XXSP,2013-06-15 21:27:00,
2013-06-15 14:29:00,69.6,52.6,29.97,North,9,5.8,8.5,55,0.00,,,0.00,WUHU21636XXSP,2013-06-15 21:29:00,
2013-06-15 14:30:00,69.6,52.6,29.97,North,0,6.4,9.3,55,0.00,,,0.00,WUHU21636XXSP,2013-06-15 21:30:00,
2013-06-15 14:31:00,69.6,52.6,29.97,NNW,337,5.8,9.3,55,0.00,,,0.00,WUHU21636XXSP,2013-06-15 21:31:00,
2013-06-15 14:32:00,69.4,52.5,29.97,NNE,22,6.4,9.6,55,0.00,,,0.00,WUHU21636XXSP,2013-06-15 21:32:00,
2013-06-15 14:34:00,69.4,53.0,29.96,NE,39,3.5,9.6,56,0.00,,,0.00,WUHU21636XXSP,2013-06-15 21:34:00,
2013-06-15 14:35:00,69.8,53.3,29.97,NE,45,6.4,9.6,56,0.00,,,0.00,WUHU21636XXSP,2013-06-15 21:35:00,
2013-06-15 14:36:00,69.6,53.2,29.96,NNE,28,4.2,9.6,56,0.00,,,0.00,WUHU21636XXSP,2013-06-15 21:36:00,
2013-06-15 14:37:00,69.6,53.2,29.96,NNE,31,4.4,9.6,56,0.00,,,0.00,WUHU21636XXSP,2013-06-15 21:37:00,
2013-06-15 14:39:00,69.8,53.3,29.96,North,0,8.2,9.6,56,0.00,,,0.00,WUHU21636XXSP,2013-06-15 21:39:00,
2013-06-15 14:40:00,69.8,53.3,29.96,North,7,5.5,10.0,56,0.00,,,0.00,WUHU21636XXSP,2013-06-15 21:40:00,
2013-06-15 14:41:00,69.6,53.2,29.96,NNE,21,4.5,10.0,56,0.00,,,0.00,WUHU21636XXSP,2013-06-15 21:41:00,
2013-06-15 14:42:00,69.6,53.2,29.96,NE,38,3.4,10.0,56,0.00,,,0.00,WUHU21636XXSP,2013-06-15 21:42:00,
2013-06-15 14:45:00,70.0,53.5,29.96,SE,135,0.2,10.0,56,0.00,,,0.00,WUHU21636XXSP,2013-06-15 21:45:00,
2013-06-15 14:46:00,70.2,53.2,29.96,North,0,8.7,13.1,55,0.00,,,0.00,WUHU21636XXSP,2013-06-15 21:46:00,
2013-06-15 14:47:00,70.2,53.2,29.96,North,0,8.9,13.1,55,0.00,,,0.00,WUHU21636XXSP,2013-06-15 21:47:00,
2013-06-15 14:50:00,69.8,53.3,29.96,North,3,5.4,13.1,56,0.00,,,0.00,WUHU21636XXSP,2013-06-15 21:50:00,
2013-06-15 14:51:00,69.8,53.3,29.96,North,0,4.9,13.1,56,0.00,,,0.00,WUHU21636XXSP,2013-06-15 21:51:00,
2013-06-15 14:52:00,69.8,53.3,29.96,North,0,0.0,13.1,56,0.00,,,0.00,WUHU21636XXSP,2013-06-15 21:52:00,
2013-06-15 14:55:00,70.0,53.5,29.96,SE,135,2.0,13.1,56,0.00,,,0.00,WUHU21636XXSP,2013-06-15 21:55:00,
2013-06-15 14:56:00,70.0,53.5,29.96,SE,135,2.0,11.8,56,0.00,,,0.00,WUHU21636XXSP,2013-06-15 21:56:00,
2013-06-15 14:57:00,69.8,53.3,29.96,NNE,22,4.0,10.7,56,0.00,,,0.00,WUHU21636XXSP,2013-06-15 21:57:00,
2013-06-15 14:58:00,69.8,53.3,29.96,NNE,22,4.0,9.1,56,0.00,,,0.00,WUHU21636XXSP,2013-06-15 21:58:00,
2013-06-15 15:00:00,70.0,53.5,29.96,NNE,22,3.0,4.0,56,0.00,,,0.00,WUHU21636XXSP,2013-06-15 22:00:00,
2013-06-15 15:01:00,70.2,53.7,29.96,NE,45,5.8,5.8,56,0.00,,,0.00,WUHU21636XXSP,2013-06-15 22:01:00,
2013-06-15 15:02:00,70.3,53.3,29.96,NNE,16,4.9,9.1,55,0.00,,,0.00,WUHU21636XXSP,2013-06-15 22:02:00,
2013-06-15 15:03:00,70.3,53.3,29.96,North,4,4.3,9.1,55,0.00,,,0.00,WUHU21636XXSP,2013-06-15 22:03:00,
2013-06-15 15:06:00,70.3,52.8,29.96,North,0,0.0,9.1,54,0.00,,,0.00,WUHU21636XXSP,2013-06-15 22:06:00,
2013-06-15 15:07:00,70.3,53.3,29.96,NNE,22,4.6,9.1,55,0.00,,,0.00,WUHU21636XXSP,2013-06-15 22:07:00,
2013-06-15 15:08:00,70.3,53.3,29.96,NNE,22,4.6,9.1,55,0.00,,,0.00,WUHU21636XXSP,2013-06-15 22:08:00,
2013-06-15 15:11:00,70.3,53.3,29.96,NNE,22,3.2,9.1,55,0.00,,,0.00,WUHU21636XXSP,2013-06-15 22:11:00,
2013-06-15 15:12:00,70.3,53.3,29.96,NNE,22,2.9,4.6,55,0.00,,,0.00,WUHU21636XXSP,2013-06-15 22:12:00,
2013-06-15 15:13:00,70.3,52.8,29.96,North,0,5.8,10.5,54,0.00,,,0.00,WUHU21636XXSP,2013-06-15 22:13:00,
2013-06-15 15:16:00,70.0,53.0,29.96,NNE,22,4.4,10.5,55,0.00,,,0.00,WUHU21636XXSP,2013-06-15 22:16:00,
2013-06-15 15:17:00,70.0,53.0,29.96,NNE,22,4.4,10.5,55,0.00,,,0.00,WUHU21636XXSP,2013-06-15 22:17:00,
2013-06-15 15:18:00,70.2,52.7,29.96,NNE,22,4.4,10.5,54,0.00,,,0.00,WUHU21636XXSP,2013-06-15 22:18:00,
2013-06-15 15:21:00,70.3,52.8,29.96,NNW,337,0.0,10.5,54,0.00,,,0.00,WUHU21636XXSP,2013-06-15 22:21:00,
2013-06-15 15:22:00,70.3,52.8,29.96,NNW,337,0.0,10.5,54,0.00,,,0.00,WUHU21636XXSP,2013-06-15 22:22:00,
2013-06-15 15:23:00,70.5,52.9,29.96,North,11,4.5,10.5,54,0.00,,,0.00,WUHU21636XXSP,2013-06-15 22:23:00,
2013-06-15 15:24:00,70.5,52.9,29.96,NW,307,3.5,6.7,54,0.00,,,0.00,WUHU21636XXSP,2013-06-15 22:24:00,
2013-06-15 15:26:00,70.5,52.9,29.96,ESE,112,3.3,6.7,54,0.00,,,0.00,WUHU21636XXSP,2013-06-15 22:26:00,
2013-06-15 15:27:00,70.5,52.9,29.96,ESE,112,3.3,6.7,54,0.00,,,0.00,WUHU21636XXSP,2013-06-15 22:27:00,
2013-06-15 15:28:00,70.9,53.3,29.96,NE,44,4.7,9.3,54,0.00,,,0.00,WUHU21636XXSP,2013-06-15 22:28:00,
2013-06-15 15:29:00,70.9,52.2,29.96,North,1,6.8,12.5,52,0.00,,,0.00,WUHU21636XXSP,2013-06-15 22:29:00,
2013-06-15 15:31:00,70.7,52.0,29.96,NNW,337,6.0,12.5,52,0.00,,,0.00,WUHU21636XXSP,2013-06-15 22:31:00,
2013-06-15 15:32:00,70.5,51.8,29.96,North,0,9.6,12.5,52,0.00,,,0.00,WUHU21636XXSP,2013-06-15 22:32:00,
2013-06-15 15:33:00,70.5,51.8,29.96,North,0,9.6,12.7,52,0.00,,,0.00,WUHU21636XXSP,2013-06-15 22:33:00,
2013-06-15 15:34:00,70.3,51.7,29.96,NNW,337,8.5,12.7,52,0.00,,,0.00,WUHU21636XXSP,2013-06-15 22:34:00,
2013-06-15 15:36:00,70.3,52.2,29.96,NNW,348,2.5,12.7,53,0.00,,,0.00,WUHU21636XXSP,2013-06-15 22:36:00,
2013-06-15 15:37:00,70.3,52.2,29.96,North,0,0.8,12.7,53,0.00,,,0.00,WUHU21636XXSP,2013-06-15 22:37:00,
2013-06-15 15:38:00,70.3,52.8,29.96,North,0,0.6,12.7,54,0.00,,,0.00,WUHU21636XXSP,2013-06-15 22:38:00,
2013-06-15 15:39:00,70.3,52.8,29.96,North,0,0.6,12.7,54,0.00,,,0.00,WUHU21636XXSP,2013-06-15 22:39:00,
2013-06-15 15:42:00,70.3,52.2,29.96,NE,45,6.0,12.7,53,0.00,,,0.00,WUHU21636XXSP,2013-06-15 22:42:00,
2013-06-15 15:43:00,70.5,52.9,29.95,NNE,24,3.9,12.5,54,0.00,,,0.00,WUHU21636XXSP,2013-06-15 22:43:00,
2013-06-15 15:44:00,70.5,52.9,29.95,NNE,23,4.7,9.1,54,0.00,,,0.00,WUHU21636XXSP,2013-06-15 22:44:00,
2013-06-15 15:47:00,70.7,53.1,29.95,NE,45,1.5,8.2,54,0.00,,,0.00,WUHU21636XXSP,2013-06-15 22:47:00,
2013-06-15 15:48:00,70.7,52.6,29.95,NNE,22,1.5,8.2,53,0.00,,,0.00,WUHU21636XXSP,2013-06-15 22:48:00,
2013-06-15 15:49:00,70.7,52.6,29.95,NNE,22,1.5,8.2,53,0.00,,,0.00,WUHU21636XXSP,2013-06-15 22:49:00,
2013-06-15 15:52:00,70.9,52.8,29.95,NNE,22,5.1,9.6,53,0.00,,,0.00,WUHU21636XXSP,2013-06-15 22:52:00,
2013-06-15 15:53:00,70.9,52.8,29.95,NNE,20,5.3,9.6,53,0.00,,,0.00,WUHU21636XXSP,2013-06-15 22:53:00,
2013-06-15 15:54:00,70.9,52.8,29.95,North,10,3.2,9.6,53,0.00,,,0.00,WUHU21636XXSP,2013-06-15 22:54:00,
2013-06-15 15:57:00,71.2,53.1,29.95,North,0,3.5,9.6,53,0.00,,,0.00,WUHU21636XXSP,2013-06-15 22:57:00,
2013-06-15 15:58:00,71.2,53.1,29.95,North,0,3.5,9.6,53,0.00,,,0.00,WUHU21636XXSP,2013-06-15 22:58:00,
2013-06-15 15:59:00,71.2,52.5,29.95,North,0,4.2,9.6,52,0.00,,,0.00,WUHU21636XXSP,2013-06-15 22:59:00,
2013-06-15 16:02:00,71.2,53.1,29.95,NNE,25,3.1,5.1,53,0.00,,,0.00,WUHU21636XXSP,2013-06-15 23:02:00,
2013-06-15 16:03:00,71.2,53.1,29.95,East,79,2.2,4.2,53,0.00,,,0.00,WUHU21636XXSP,2013-06-15 23:03:00,
2013-06-15 16:04:00,71.2,52.5,29.96,NE,45,4.4,4.4,52,0.00,,,0.00,WUHU21636XXSP,2013-06-15 23:04:00,
2013-06-15 16:07:00,71.2,52.5,29.95,North,0,8.5,12.9,52,0.00,,,0.00,WUHU21636XXSP,2013-06-15 23:07:00,
2013-06-15 16:08:00,71.2,52.5,29.95,North,0,7.6,12.9,52,0.00,,,0.00,WUHU21636XXSP,2013-06-15 23:08:00,
2013-06-15 16:09:00,71.2,52.5,29.95,North,353,4.4,12.9,52,0.00,,,0.00,WUHU21636XXSP,2013-06-15 23:09:00,
2013-06-15 16:12:00,71.2,53.1,29.96,ESE,112,0.0,12.9,53,0.00,,,0.00,WUHU21636XXSP,2013-06-15 23:12:00,
2013-06-15 16:13:00,71.2,53.1,29.95,ESE,112,0.0,12.9,53,0.00,,,0.00,WUHU21636XXSP,2013-06-15 23:13:00,
2013-06-15 16:14:00,71.2,53.1,29.95,ESE,112,0.0,12.9,53,0.00,,,0.00,WUHU21636XXSP,2013-06-15 23:14:00,
2013-06-15 16:15:00,71.4,53.2,29.95,SE,135,0.0,12.9,53,0.00,,,0.00,WUHU21636XXSP,2013-06-15 23:15:00,
2013-06-15 16:17:00,71.8,52.5,29.96,North,7,8.6,11.1,51,0.00,,,0.00,WUHU21636XXSP,2013-06-15 23:17:00,
2013-06-15 16:18:00,71.8,52.5,29.96,North,2,7.2,11.1,51,0.00,,,0.00,WUHU21636XXSP,2013-06-15 23:18:00,
2013-06-15 16:20:00,71.8,53.1,29.95,NNE,31,4.0,11.1,52,0.00,,,0.00,WUHU21636XXSP,2013-06-15 23:20:00,
2013-06-15 16:23:00,71.4,52.1,29.95,NNE,28,4.5,11.1,51,0.00,,,0.00,WUHU21636XXSP,2013-06-15 23:23:00,
2013-06-15 16:25:00,71.4,52.1,29.95,NE,45,3.1,11.1,51,0.00,,,0.00,WUHU21636XXSP,2013-06-15 23:25:00,
2013-06-15 16:29:00,71.4,52.7,29.95,NNE,21,4.9,8.0,52,0.00,,,0.00,WUHU21636XXSP,2013-06-15 23:29:00,
2013-06-15 16:30:00,71.4,52.7,29.95,NNE,16,3.4,8.0,52,0.00,,,0.00,WUHU21636XXSP,2013-06-15 23:30:00,
2013-06-15 16:34:00,71.4,52.7,29.95,North,358,3.6,11.1,52,0.00,,,0.00,WUHU21636XXSP,2013-06-15 23:34:00,
2013-06-15 16:35:00,71.4,52.7,29.95,NNE,22,4.4,11.1,52,0.00,,,0.00,WUHU21636XXSP,2013-06-15 23:35:00,
2013-06-15 16:39:00,71.4,52.7,29.95,ESE,112,0.0,11.1,52,0.00,,,0.00,WUHU21636XXSP,2013-06-15 23:39:00,
2013-06-15 16:40:00,71.4,52.7,29.96,ESE,112,0.0,11.1,52,0.00,,,0.00,WUHU21636XXSP,2013-06-15 23:40:00,
2013-06-15 16:41:00,71.4,52.7,29.96,NNE,22,0.0,11.1,52,0.00,,,0.00,WUHU21636XXSP,2013-06-15 23:41:00,
2013-06-15 16:44:00,71.4,52.7,29.95,NNW,337,2.9,4.4,52,0.00,,,0.00,WUHU21636XXSP,2013-06-15 23:44:00,
2013-06-15 16:45:00,71.4,52.7,29.95,North,0,4.0,4.4,52,0.00,,,0.00,WUHU21636XXSP,2013-06-15 23:45:00,
2013-06-15 16:46:00,71.4,52.7,29.95,North,0,4.0,4.4,52,0.00,,,0.00,WUHU21636XXSP,2013-06-15 23:46:00,
2013-06-15 16:49:00,71.4,52.7,29.95,North,0,4.0,4.0,52,0.00,,,0.00,WUHU21636XXSP,2013-06-15 23:49:00,
2013-06-15 16:50:00,71.4,52.7,29.96,NNE,22,0.4,4.0,52,0.00,,,0.00,WUHU21636XXSP,2013-06-15 23:50:00,
2013-06-15 16:51:00,71.4,52.7,29.95,NNE,22,0.4,4.0,52,0.00,,,0.00,WUHU21636XXSP,2013-06-15 23:51:00,
2013-06-15 16:54:00,71.4,52.7,29.96,North,11,3.9,7.8,52,0.00,,,0.00,WUHU21636XXSP,2013-06-15 23:54:00,
2013-06-15 16:55:00,71.4,52.7,29.95,North,6,4.2,7.8,52,0.00,,,0.00,WUHU21636XXSP,2013-06-15 23:55:00,
2013-06-15 16:56:00,71.4,52.7,29.95,North,11,4.4,7.8,52,0.00,,,0.00,WUHU21636XXSP,2013-06-15 23:56:00,
2013-06-15 16:59:00,71.4,52.7,29.95,North,0,4.2,7.8,52,0.00,,,0.00,WUHU21636XXSP,2013-06-15 23:59:00,
2013-06-15 17:00:00,71.4,52.7,29.95,North,0,4.2,7.8,52,0.00,,,0.00,WUHU21636XXSP,2013-06-16 00:00:00,
2013-06-15 17:01:00,71.2,52.5,29.95,North,0,4.2,7.8,52,0.00,,,0.00,WUHU21636XXSP,2013-06-16 00:01:00,
2013-06-15 17:04:00,71.4,53.2,29.95,ESE,112,1.1,4.2,53,0.00,,,0.00,WUHU21636XXSP,2013-06-16 00:04:00,
2013-06-15 17:05:00,71.2,53.1,29.95,ESE,112,1.1,4.2,53,0.00,,,0.00,WUHU21636XXSP,2013-06-16 00:05:00,
2013-06-15 17:06:00,71.2,53.1,29.95,ESE,112,1.1,4.2,53,0.00,,,0.00,WUHU21636XXSP,2013-06-16 00:06:00,
2013-06-15 17:10:00,71.2,53.1,29.95,NNE,22,3.5,4.2,53,0.00,,,0.00,WUHU21636XXSP,2013-06-16 00:10:00,
2013-06-15 17:11:00,71.2,53.1,29.95,NNE,22,3.5,3.5,53,0.00,,,0.00,WUHU21636XXSP,2013-06-16 00:11:00,
2013-06-15 17:12:00,71.2,53.1,29.95,North,0,6.2,7.1,53,0.00,,,0.00,WUHU21636XXSP,2013-06-16 00:12:00,
2013-06-15 17:15:00,71.2,53.1,29.95,ENE,67,1.3,7.1,53,0.00,,,0.00,WUHU21636XXSP,2013-06-16 00:15:00,
2013-06-15 17:16:00,71.2,53.1,29.95,ENE,67,1.3,7.1,53,0.00,,,0.00,WUHU21636XXSP,2013-06-16 00:16:00,
2013-06-15 17:17:00,71.2,53.1,29.95,NNE,22,2.0,7.1,53,0.00,,,0.00,WUHU21636XXSP,2013-06-16 00:17:00,
2013-06-15 17:21:00,71.2,53.1,29.96,ENE,67,0.0,7.1,53,0.00,,,0.00,WUHU21636XXSP,2013-06-16 00:21:00,
2013-06-15 17:22:00,71.2,52.5,29.95,NNE,22,1.7,6.9,52,0.00,,,0.00,WUHU21636XXSP,2013-06-16 00:22:00,
2013-06-15 17:26:00,71.1,53.0,29.96,North,8,4.2,4.4,53,0.00,,,0.00,WUHU21636XXSP,2013-06-16 00:26:00,
2013-06-15 17:27:00,71.1,53.0,29.95,NNE,19,4.1,4.4,53,0.00,,,0.00,WUHU21636XXSP,2013-06-16 00:27:00,
2013-06-15 17:31:00,70.9,52.2,29.96,NNE,22,3.5,4.4,52,0.00,,,0.00,WUHU21636XXSP,2013-06-16 00:31:00,
2013-06-15 17:32:00,70.9,52.2,29.96,NNE,22,3.5,4.4,52,0.00,,,0.00,WUHU21636XXSP,2013-06-16 00:32:00,
2013-06-15 17:36:00,70.9,52.2,29.95,NNE,22,4.0,4.0,52,0.00,,,0.00,WUHU21636XXSP,2013-06-16 00:36:00,
2013-06-15 17:37:00,70.9,52.2,29.95,NNE,22,4.0,4.0,52,0.00,,,0.00,WUHU21636XXSP,2013-06-16 00:37:00,
2013-06-15 17:38:00,70.9,52.2,29.96,NNE,22,4.0,4.0,52,0.00,,,0.00,WUHU21636XXSP,2013-06-16 00:38:00,
2013-06-15 17:42:00,70.7,52.0,29.96,North,0,1.8,4.9,52,0.00,,,0.00,WUHU21636XXSP,2013-06-16 00:42:00,
2013-06-15 17:43:00,70.7,52.0,29.96,NNE,22,2.4,4.9,52,0.00,,,0.00,WUHU21636XXSP,2013-06-16 00:43:00,
2013-06-15 17:47:00,70.7,52.0,29.96,North,0,3.1,4.9,52,0.00,,,0.00,WUHU21636XXSP,2013-06-16 00:47:00,
2013-06-15 17:48:00,70.5,51.8,29.96,North,0,3.9,7.8,52,0.00,,,0.00,WUHU21636XXSP,2013-06-16 00:48:00,
2013-06-15 17:52:00,70.3,51.7,29.95,North,0,4.0,7.8,52,0.00,,,0.00,WUHU21636XXSP,2013-06-16 00:52:00,
2013-06-15 17:53:00,70.3,51.7,29.95,NNE,15,3.4,7.8,52,0.00,,,0.00,WUHU21636XXSP,2013-06-16 00:53:00,
2013-06-15 17:54:00,70.3,51.7,29.95,NE,45,2.6,7.8,52,0.00,,,0.00,WUHU21636XXSP,2013-06-16 00:54:00,
2013-06-15 17:57:00,70.5,51.8,29.96,North,0,3.1,7.8,52,0.00,,,0.00,WUHU21636XXSP,2013-06-16 00:57:00,
2013-06-15 17:58:00,70.5,51.8,29.96,North,0,3.1,7.8,52,0.00,,,0.00,WUHU21636XXSP,2013-06-16 00:58:00,
2013-06-15 17:59:00,70.5,51.8,29.96,North,0,4.9,8.5,52,0.00,,,0.00,WUHU21636XXSP,2013-06-16 00:59:00,
2013-06-15 18:02:00,70.7,52.6,29.96,NNE,22,0.8,8.5,53,0.00,,,0.00,WUHU21636XXSP,2013-06-16 01:02:00,
2013-06-15 18:03:00,70.7,52.6,29.96,NNE,22,0.8,8.5,53,0.00,,,0.00,WUHU21636XXSP,2013-06-16 01:03:00,
2013-06-15 18:04:00,70.5,51.8,29.96,NNE,22,0.0,8.5,52,0.00,,,0.00,WUHU21636XXSP,2013-06-16 01:04:00,
2013-06-15 18:08:00,70.7,52.0,29.96,NNE,22,3.8,8.5,52,0.00,,,0.00,WUHU21636XXSP,2013-06-16 01:08:00,
2013-06-15 18:09:00,70.5,51.8,29.96,NNE,22,3.8,4.9,52,0.00,,,0.00,WUHU21636XXSP,2013-06-16 01:09:00,
2013-06-15 18:13:00,70.5,51.8,29.96,NNW,337,2.2,7.1,52,0.00,,,0.00,WUHU21636XXSP,2013-06-16 01:13:00,
2013-06-15 18:14:00,70.5,51.8,29.96,North,0,5.5,7.1,52,0.00,,,0.00,WUHU21636XXSP,2013-06-16 01:14:00,
2013-06-15 18:18:00,70.5,51.8,29.96,North,0,4.2,8.9,52,0.00,,,0.00,WUHU21636XXSP,2013-06-16 01:18:00,
2013-06-15 18:19:00,70.5,51.8,29.96,North,0,3.8,8.9,52,0.00,,,0.00,WUHU21636XXSP,2013-06-16 01:19:00,
2013-06-15 18:20:00,70.3,51.7,29.96,North,0,3.2,8.9,52,0.00,,,0.00,WUHU21636XXSP,2013-06-16 01:20:00,
2013-06-15 18:23:00,70.2,51.6,29.96,North,0,3.1,8.9,52,0.00,,,0.00,WUHU21636XXSP,2013-06-16 01:23:00,
2013-06-15 18:24:00,70.2,51.6,29.96,North,0,3.0,8.9,52,0.00,,,0.00,WUHU21636XXSP,2013-06-16 01:24:00,
2013-06-15 18:25:00,70.2,51.6,29.96,North,0,2.9,8.9,52,0.00,,,0.00,WUHU21636XXSP,2013-06-16 01:25:00,
2013-06-15 18:28:00,70.2,51.6,29.96,NNE,22,3.5,3.8,52,0.00,,,0.00,WUHU21636XXSP,2013-06-16 01:28:00,
2013-06-15 18:29:00,70.2,51.6,29.96,NNE,22,3.5,3.5,52,0.00,,,0.00,WUHU21636XXSP,2013-06-16 01:29:00,
2013-06-15 18:30:00,70.0,51.9,29.96,ESE,112,0.0,3.5,53,0.00,,,0.00,WUHU21636XXSP,2013-06-16 01:30:00,
2013-06-15 18:34:00,70.0,51.9,29.96,ENE,67,0.0,3.5,53,0.00,,,0.00,WUHU21636XXSP,2013-06-16 01:34:00,
2013-06-15 18:35:00,69.6,52.1,29.96,SE,135,2.4,3.5,54,0.00,,,0.00,WUHU21636XXSP,2013-06-16 01:35:00,
2013-06-15 18:39:00,69.6,52.1,29.96,NNE,22,2.4,2.4,54,0.00,,,0.00,WUHU21636XXSP,2013-06-16 01:39:00,
2013-06-15 18:40:00,69.4,51.9,29.96,NE,45,0.0,2.4,54,0.00,,,0.00,WUHU21636XXSP,2013-06-16 01:40:00,
2013-06-15 18:41:00,69.4,51.9,29.96,NE,45,0.0,2.4,54,0.00,,,0.00,WUHU21636XXSP,2013-06-16 01:41:00,
2013-06-15 18:44:00,69.4,51.9,29.96,NNE,22,2.0,2.4,54,0.00,,,0.00,WUHU21636XXSP,2013-06-16 01:44:00,
2013-06-15 18:45:00,69.4,51.9,29.96,NNE,22,2.0,2.4,54,0.00,,,0.00,WUHU21636XXSP,2013-06-16 01:45:00,
2013-06-15 18:46:00,69.4,51.9,29.96,NNE,22,2.0,2.4,54,0.00,,,0.00,WUHU21636XXSP,2013-06-16 01:46:00,
2013-06-15 18:49:00,69.4,51.9,29.96,North,0,0.0,2.0,54,0.00,,,0.00,WUHU21636XXSP,2013-06-16 01:49:00,
2013-06-15 18:50:00,69.1,51.6,29.96,North,0,0.0,2.0,54,0.00,,,0.00,WUHU21636XXSP,2013-06-16 01:50:00,
2013-06-15 18:51:00,69.1,51.6,29.96,North,0,1.1,2.0,54,0.00,,,0.00,WUHU21636XXSP,2013-06-16 01:51:00,
2013-06-15 18:54:00,69.1,52.2,29.96,North,0,1.1,2.0,55,0.00,,,0.00,WUHU21636XXSP,2013-06-16 01:54:00,
2013-06-15 18:55:00,69.1,52.2,29.96,North,0,1.1,1.1,55,0.00,,,0.00,WUHU21636XXSP,2013-06-16 01:55:00,
2013-06-15 18:56:00,69.1,52.2,29.96,SE,135,0.0,1.1,55,0.00,,,0.00,WUHU21636XXSP,2013-06-16 01:56:00,
2013-06-15 18:59:00,69.1,52.2,29.96,SE,135,0.0,1.1,55,0.00,,,0.00,WUHU21636XXSP,2013-06-16 01:59:00,
2013-06-15 19:00:00,69.1,52.2,29.96,ESE,112,0.0,1.1,55,0.00,,,0.00,WUHU21636XXSP,2013-06-16 02:00:00,
2013-06-15 19:01:00,69.1,52.2,29.96,ESE,112,0.0,1.1,55,0.00,,,0.00,WUHU21636XXSP,2013-06-16 02:01:00,
2013-06-15 19:02:00,68.9,52.0,29.97,ESE,112,0.0,1.1,55,0.00,,,0.00,WUHU21636XXSP,2013-06-16 02:02:00,
2013-06-15 19:04:00,68.9,52.0,29.97,NNE,22,3.1,3.1,55,0.00,,,0.00,WUHU21636XXSP,2013-06-16 02:04:00,
2013-06-15 19:05:00,68.9,52.0,29.97,NNE,22,3.1,3.1,55,0.00,,,0.00,WUHU21636XXSP,2013-06-16 02:05:00,
2013-06-15 19:06:00,68.9,52.0,29.97,NNE,22,3.1,3.1,55,0.00,,,0.00,WUHU21636XXSP,2013-06-16 02:06:00,
2013-06-15 19:07:00,68.7,51.8,29.97,NNE,22,3.1,3.1,55,0.00,,,0.00,WUHU21636XXSP,2013-06-16 02:07:00,
2013-06-15 19:09:00,68.7,51.8,29.97,ENE,67,0.0,3.1,55,0.00,,,0.00,WUHU21636XXSP,2013-06-16 02:09:00,
2013-06-15 19:10:00,68.7,51.8,29.97,ENE,67,0.0,3.1,55,0.00,,,0.00,WUHU21636XXSP,2013-06-16 02:10:00,
2013-06-15 19:11:00,68.5,51.6,29.96,East,90,0.0,3.1,55,0.00,,,0.00,WUHU21636XXSP,2013-06-16 02:11:00,
2013-06-15 19:12:00,68.5,51.6,29.97,East,90,0.0,3.1,55,0.00,,,0.00,WUHU21636XXSP,2013-06-16 02:12:00,
2013-06-15 19:14:00,68.5,51.6,29.96,East,90,0.0,3.1,55,0.00,,,0.00,WUHU21636XXSP,2013-06-16 02:14:00,
2013-06-15 19:15:00,68.5,51.6,29.96,East,90,0.0,3.1,55,0.00,,,0.00,WUHU21636XXSP,2013-06-16 02:15:00,
2013-06-15 19:16:00,68.4,51.5,29.97,NNE,22,0.0,0.0,55,0.00,,,0.00,WUHU21636XXSP,2013-06-16 02:16:00,
2013-06-15 19:17:00,68.2,51.3,29.97,NNE,22,0.0,0.0,55,0.00,,,0.00,WUHU21636XXSP,2013-06-16 02:17:00,
2013-06-15 19:20:00,68.0,51.7,29.97,ENE,67,0.8,0.8,56,0.00,,,0.00,WUHU21636XXSP,2013-06-16 02:20:00,
2013-06-15 19:21:00,68.0,51.7,29.97,ENE,67,0.8,0.8,56,0.00,,,0.00,WUHU21636XXSP,2013-06-16 02:21:00,
2013-06-15 19:22:00,67.8,51.5,29.97,ENE,67,0.8,0.8,56,0.00,,,0.00,WUHU21636XXSP,2013-06-16 02:22:00,
2013-06-15 19:25:00,67.6,51.3,29.97,ENE,67,0.0,0.8,56,0.00,,,0.00,WUHU21636XXSP,2013-06-16 02:25:00,
2013-06-15 19:26:00,67.6,51.3,29.97,SE,135,0.0,0.8,56,0.00,,,0.00,WUHU21636XXSP,2013-06-16 02:26:00,
2013-06-15 19:27:00,67.6,51.3,29.97,SE,135,0.0,0.8,56,0.00,,,0.00,WUHU21636XXSP,2013-06-16 02:27:00,
2013-06-15 19:30:00,67.5,51.7,29.97,SE,135,0.0,0.8,57,0.00,,,0.00,WUHU21636XXSP,2013-06-16 02:30:00,
2013-06-15 19:31:00,67.3,51.5,29.97,SE,135,0.0,0.8,57,0.00,,,0.00,WUHU21636XXSP,2013-06-16 02:31:00,
2013-06-15 19:32:00,67.3,51.5,29.97,SE,135,0.0,0.0,57,0.00,,,0.00,WUHU21636XXSP,2013-06-16 02:32:00,
2013-06-15 19:33:00,67.1,51.3,29.97,SE,135,1.3,1.3,57,0.00,,,0.00,WUHU21636XXSP,2013-06-16 02:33:00,
2013-06-15 19:35:00,67.1,51.3,29.97,SE,135,1.3,1.3,57,0.00,,,0.00,WUHU21636XXSP,2013-06-16 02:35:00,
2013-06-15 19:36:00,67.1,51.3,29.97,SE,135,1.3,1.3,57,0.00,,,0.00,WUHU21636XXSP,2013-06-16 02:36:00,
2013-06-15 19:37:00,66.9,51.1,29.97,SE,135,0.0,1.3,57,0.00,,,0.00,WUHU21636XXSP,2013-06-16 02:37:00,
2013-06-15 19:38:00,66.9,51.1,29.97,SE,135,0.0,1.3,57,0.00,,,0.00,WUHU21636XXSP,2013-06-16 02:38:00,
2013-06-15 19:40:00,66.9,51.1,29.97,SE,135,0.0,1.3,57,0.00,,,0.00,WUHU21636XXSP,2013-06-16 02:40:00,
2013-06-15 19:41:00,66.7,50.9,29.97,SE,135,0.0,1.3,57,0.00,,,0.00,WUHU21636XXSP,2013-06-16 02:41:00,
2013-06-15 19:42:00,66.7,50.9,29.97,SE,135,0.0,1.3,57,0.00,,,0.00,WUHU21636XXSP,2013-06-16 02:42:00,
2013-06-15 19:43:00,66.7,50.9,29.97,ESE,112,0.0,1.3,57,0.00,,,0.00,WUHU21636XXSP,2013-06-16 02:43:00,
2013-06-15 19:45:00,66.6,50.9,29.97,ESE,112,0.0,0.0,57,0.00,,,0.00,WUHU21636XXSP,2013-06-16 02:45:00,
2013-06-15 19:46:00,66.6,50.9,29.97,ESE,112,0.0,0.0,57,0.00,,,0.00,WUHU21636XXSP,2013-06-16 02:46:00,
2013-06-15 19:47:00,66.6,50.9,29.97,ESE,112,0.0,0.0,57,0.00,,,0.00,WUHU21636XXSP,2013-06-16 02:47:00,
2013-06-15 19:49:00,66.6,50.9,29.97,ESE,112,0.0,0.0,57,0.00,,,0.00,WUHU21636XXSP,2013-06-16 02:49:00,
2013-06-15 19:51:00,66.4,50.2,29.97,ESE,112,0.0,0.0,56,0.00,,,0.00,WUHU21636XXSP,2013-06-16 02:51:00,
2013-06-15 19:52:00,66.4,50.7,29.97,ESE,112,0.0,0.0,57,0.00,,,0.00,WUHU21636XXSP,2013-06-16 02:52:00,
2013-06-15 19:54:00,66.4,50.7,29.97,ESE,112,0.0,0.0,57,0.00,,,0.00,WUHU21636XXSP,2013-06-16 02:54:00,
2013-06-15 19:56:00,66.4,50.7,29.97,ESE,112,0.0,0.0,57,0.00,,,0.00,WUHU21636XXSP,2013-06-16 02:56:00,
2013-06-15 19:57:00,66.4,50.7,29.97,ESE,112,0.0,0.0,57,0.00,,,0.00,WUHU21636XXSP,2013-06-16 02:57:00,
2013-06-15 19:59:00,66.4,50.7,29.97,ENE,67,0.0,0.0,57,0.00,,,0.00,WUHU21636XXSP,2013-06-16 02:59:00,
2013-06-15 20:02:00,66.4,50.7,29.97,ENE,67,0.0,0.0,57,0.00,,,0.00,WUHU21636XXSP,2013-06-16 03:02:00,
2013-06-15 20:04:00,66.2,50.0,29.97,ENE,67,0.0,0.0,56,0.00,,,0.00,WUHU21636XXSP,2013-06-16 03:04:00,
2013-06-15 20:07:00,66.0,49.8,29.98,ENE,67,0.0,0.0,56,0.00,,,0.00,WUHU21636XXSP,2013-06-16 03:07:00,
2013-06-15 20:08:00,66.0,49.8,29.98,ENE,67,0.0,0.0,56,0.00,,,0.00,WUHU21636XXSP,2013-06-16 03:08:00,
2013-06-15 20:09:00,66.0,49.8,29.98,ENE,67,0.0,0.0,56,0.00,,,0.00,WUHU21636XXSP,2013-06-16 03:09:00,
2013-06-15 20:12:00,66.0,49.8,29.98,ENE,67,0.0,0.0,56,0.00,,,0.00,WUHU21636XXSP,2013-06-16 03:12:00,
2013-06-15 20:13:00,66.0,49.8,29.98,ENE,67,0.0,0.0,56,0.00,,,0.00,WUHU21636XXSP,2013-06-16 03:13:00,
2013-06-15 20:14:00,66.0,49.8,29.98,ENE,67,0.0,0.0,56,0.00,,,0.00,WUHU21636XXSP,2013-06-16 03:14:00,
2013-06-15 20:17:00,66.0,49.8,29.98,ENE,67,0.0,0.0,56,0.00,,,0.00,WUHU21636XXSP,2013-06-16 03:17:00,
2013-06-15 20:18:00,66.0,49.8,29.98,ENE,67,0.0,0.0,56,0.00,,,0.00,WUHU21636XXSP,2013-06-16 03:18:00,
2013-06-15 20:20:00,65.8,49.6,29.98,ENE,67,0.0,0.0,56,0.00,,,0.00,WUHU21636XXSP,2013-06-16 03:20:00,
2013-06-15 20:22:00,66.0,49.8,29.98,ENE,67,0.0,0.0,56,0.00,,,0.00,WUHU21636XXSP,2013-06-16 03:22:00,
2013-06-15 20:23:00,66.0,49.8,29.97,ENE,67,0.0,0.0,56,0.00,,,0.00,WUHU21636XXSP,2013-06-16 03:23:00,
2013-06-15 20:25:00,65.8,50.1,29.98,ENE,67,0.0,0.0,57,0.00,,,0.00,WUHU21636XXSP,2013-06-16 03:25:00,
2013-06-15 20:27:00,65.8,49.6,29.98,ENE,67,0.0,0.0,56,0.00,,,0.00,WUHU21636XXSP,2013-06-16 03:27:00,
2013-06-15 20:28:00,65.8,49.6,29.98,ENE,67,0.0,0.0,56,0.00,,,0.00,WUHU21636XXSP,2013-06-16 03:28:00,
2013-06-15 20:30:00,65.8,49.6,29.98,ENE,67,0.0,0.0,56,0.00,,,0.00,WUHU21636XXSP,2013-06-16 03:30:00,
2013-06-15 20:32:00,65.8,49.6,29.98,ENE,67,0.0,0.0,56,0.00,,,0.00,WUHU21636XXSP,2013-06-16 03:32:00,
2013-06-15 20:33:00,65.8,49.6,29.98,ENE,67,0.0,0.0,56,0.00,,,0.00,WUHU21636XXSP,2013-06-16 03:33:00,
2013-06-15 20:34:00,65.8,49.6,29.98,ENE,67,0.0,0.0,56,0.00,,,0.00,WUHU21636XXSP,2013-06-16 03:34:00,
2013-06-15 20:36:00,65.7,49.5,29.98,ENE,67,0.0,0.0,56,0.00,,,0.00,WUHU21636XXSP,2013-06-16 03:36:00,
2013-06-15 20:38:00,65.5,49.3,29.98,ENE,67,0.0,0.0,56,0.00,,,0.00,WUHU21636XXSP,2013-06-16 03:38:00,
2013-06-15 20:39:00,65.5,49.8,29.98,ENE,67,0.0,0.0,57,0.00,,,0.00,WUHU21636XXSP,2013-06-16 03:39:00,
2013-06-15 20:41:00,65.5,49.8,29.98,ENE,67,0.0,0.0,57,0.00,,,0.00,WUHU21636XXSP,2013-06-16 03:41:00,
2013-06-15 20:43:00,65.5,49.8,29.98,ENE,67,0.0,0.0,57,0.00,,,0.00,WUHU21636XXSP,2013-06-16 03:43:00,
2013-06-15 20:44:00,65.3,49.6,29.98,ENE,67,0.0,0.0,57,0.00,,,0.00,WUHU21636XXSP,2013-06-16 03:44:00,
2013-06-15 20:46:00,65.1,49.4,29.98,ENE,67,0.0,0.0,57,0.00,,,0.00,WUHU21636XXSP,2013-06-16 03:46:00,
2013-06-15 20:48:00,65.3,50.1,29.98,ENE,67,0.0,0.0,58,0.00,,,0.00,WUHU21636XXSP,2013-06-16 03:48:00,
2013-06-15 20:49:00,65.3,50.1,29.98,ENE,67,0.0,0.0,58,0.00,,,0.00,WUHU21636XXSP,2013-06-16 03:49:00,
2013-06-15 20:51:00,65.1,49.9,29.98,ENE,67,0.0,0.0,58,0.00,,,0.00,WUHU21636XXSP,2013-06-16 03:51:00,
2013-06-15 20:53:00,64.9,49.8,29.98,ENE,67,0.0,0.0,58,0.00,,,0.00,WUHU21636XXSP,2013-06-16 03:53:00,
2013-06-15 20:54:00,64.8,50.1,29.98,ENE,67,0.0,0.0,59,0.00,,,0.00,WUHU21636XXSP,2013-06-16 03:54:00,
2013-06-15 20:56:00,64.6,50.0,29.98,ENE,67,0.0,0.0,59,0.00,,,0.00,WUHU21636XXSP,2013-06-16 03:56:00,
2013-06-15 20:58:00,64.4,49.8,29.98,ENE,67,0.0,0.0,59,0.00,,,0.00,WUHU21636XXSP,2013-06-16 03:58:00,
2013-06-15 20:59:00,64.4,49.8,29.98,ENE,67,0.0,0.0,59,0.00,,,0.00,WUHU21636XXSP,2013-06-16 03:59:00,
2013-06-15 21:01:00,64.2,49.1,29.98,ENE,67,0.0,0.0,58,0.00,,,0.00,WUHU21636XXSP,2013-06-16 04:01:00,
2013-06-15 21:06:00,64.0,49.4,29.98,ENE,67,0.0,0.0,59,0.00,,,0.00,WUHU21636XXSP,2013-06-16 04:06:00,
2013-06-15 21:11:00,63.3,48.7,29.98,ENE,67,0.0,0.0,59,0.00,,,0.00,WUHU21636XXSP,2013-06-16 04:11:00,
2013-06-15 21:16:00,63.1,48.5,29.98,ENE,67,0.0,0.0,59,0.00,,,0.00,WUHU21636XXSP,2013-06-16 04:16:00,
2013-06-15 21:17:00,63.1,48.5,29.98,ENE,67,0.0,0.0,59,0.00,,,0.00,WUHU21636XXSP,2013-06-16 04:17:00,
2013-06-15 21:21:00,62.8,48.3,29.98,ENE,67,0.0,0.0,59,0.00,,,0.00,WUHU21636XXSP,2013-06-16 04:21:00,
2013-06-15 21:22:00,62.8,48.3,29.98,ENE,67,0.0,0.0,59,0.00,,,0.00,WUHU21636XXSP,2013-06-16 04:22:00,
2013-06-15 21:26:00,62.4,48.4,29.99,ENE,67,0.0,0.0,60,0.00,,,0.00,WUHU21636XXSP,2013-06-16 04:26:00,
2013-06-15 21:27:00,62.4,48.4,29.98,ENE,67,0.0,0.0,60,0.00,,,0.00,WUHU21636XXSP,2013-06-16 04:27:00,
2013-06-15 21:31:00,62.2,48.2,29.98,ENE,67,0.0,0.0,60,0.00,,,0.00,WUHU21636XXSP,2013-06-16 04:31:00,
2013-06-15 21:32:00,62.2,48.2,29.99,ENE,67,0.0,0.0,60,0.00,,,0.00,WUHU21636XXSP,2013-06-16 04:32:00,
2013-06-15 21:33:00,62.2,48.6,29.99,ENE,67,0.0,0.0,61,0.00,,,0.00,WUHU21636XXSP,2013-06-16 04:33:00,
2013-06-15 21:37:00,61.9,48.3,29.99,ENE,67,0.0,0.0,61,0.00,,,0.00,WUHU21636XXSP,2013-06-16 04:37:00,
2013-06-15 21:38:00,61.9,48.3,29.99,ENE,67,0.0,0.0,61,0.00,,,0.00,WUHU21636XXSP,2013-06-16 04:38:00,
2013-06-15 21:42:00,61.7,48.2,29.99,ENE,67,0.0,0.0,61,0.00,,,0.00,WUHU21636XXSP,2013-06-16 04:42:00,
2013-06-15 21:43:00,61.7,48.2,29.99,ENE,67,0.0,0.0,61,0.00,,,0.00,WUHU21636XXSP,2013-06-16 04:43:00,
2013-06-15 21:47:00,61.3,48.2,29.99,ENE,67,0.0,0.0,62,0.00,,,0.00,WUHU21636XXSP,2013-06-16 04:47:00,
2013-06-15 21:48:00,61.3,48.7,29.99,ENE,67,0.0,0.0,63,0.00,,,0.00,WUHU21636XXSP,2013-06-16 04:48:00,
2013-06-15 21:52:00,61.0,48.4,30.00,ENE,67,0.0,0.0,63,0.00,,,0.00,WUHU21636XXSP,2013-06-16 04:52:00,
2013-06-15 21:53:00,61.0,48.4,30.00,ENE,67,0.0,0.0,63,0.00,,,0.00,WUHU21636XXSP,2013-06-16 04:53:00,
2013-06-15 21:58:00,60.8,48.2,29.99,ENE,67,0.0,0.0,63,0.00,,,0.00,WUHU21636XXSP,2013-06-16 04:58:00,
2013-06-15 22:03:00,60.4,48.3,30.00,ENE,67,0.0,0.0,64,0.00,,,0.00,WUHU21636XXSP,2013-06-16 05:03:00,
2013-06-15 22:04:00,60.4,48.3,30.00,ENE,67,0.0,0.0,64,0.00,,,0.00,WUHU21636XXSP,2013-06-16 05:04:00,
2013-06-15 22:08:00,60.4,48.3,30.00,ENE,67,0.0,0.0,64,0.00,,,0.00,WUHU21636XXSP,2013-06-16 05:08:00,
2013-06-15 22:09:00,60.4,48.3,30.00,ENE,67,0.0,0.0,64,0.00,,,0.00,WUHU21636XXSP,2013-06-16 05:09:00,
2013-06-15 22:13:00,60.4,48.3,30.00,ENE,67,0.0,0.0,64,0.00,,,0.00,WUHU21636XXSP,2013-06-16 05:13:00,
2013-06-15 22:14:00,60.3,48.2,30.00,ENE,67,0.0,0.0,64,0.00,,,0.00,WUHU21636XXSP,2013-06-16 05:14:00,
2013-06-15 22:18:00,60.1,48.4,30.00,ENE,67,0.0,0.0,65,0.00,,,0.00,WUHU21636XXSP,2013-06-16 05:18:00,
2013-06-15 22:19:00,60.1,48.4,30.00,ENE,67,0.0,0.0,65,0.00,,,0.00,WUHU21636XXSP,2013-06-16 05:19:00,
2013-06-15 22:20:00,60.1,48.4,30.00,ENE,67,0.0,0.0,65,0.00,,,0.00,WUHU21636XXSP,2013-06-16 05:20:00,
2013-06-15 22:23:00,59.9,48.2,30.00,ENE,67,0.0,0.0,65,0.00,,,0.00,WUHU21636XXSP,2013-06-16 05:23:00,
2013-06-15 22:24:00,59.9,48.2,30.00,ENE,67,0.0,0.0,65,0.00,,,0.00,WUHU21636XXSP,2013-06-16 05:24:00,
2013-06-15 22:25:00,59.9,48.2,30.00,ENE,67,0.0,0.0,65,0.00,,,0.00,WUHU21636XXSP,2013-06-16 05:25:00,
2013-06-15 22:28:00,59.7,48.0,30.00,ENE,67,0.0,0.0,65,0.00,,,0.00,WUHU21636XXSP,2013-06-16 05:28:00,
2013-06-15 22:29:00,59.7,48.0,30.00,ENE,67,0.0,0.0,65,0.00,,,0.00,WUHU21636XXSP,2013-06-16 05:29:00,
2013-06-15 22:30:00,59.7,48.0,30.00,ENE,67,0.0,0.0,65,0.00,,,0.00,WUHU21636XXSP,2013-06-16 05:30:00,
2013-06-15 22:33:00,59.5,47.8,30.00,ENE,67,0.0,0.0,65,0.00,,,0.00,WUHU21636XXSP,2013-06-16 05:33:00,
2013-06-15 22:34:00,59.5,47.8,30.00,ENE,67,0.0,0.0,65,0.00,,,0.00,WUHU21636XXSP,2013-06-16 05:34:00,
2013-06-15 22:35:00,59.5,47.8,30.00,ENE,67,0.0,0.0,65,0.00,,,0.00,WUHU21636XXSP,2013-06-16 05:35:00,
2013-06-15 22:39:00,59.4,47.7,30.00,ENE,67,0.0,0.0,65,0.00,,,0.00,WUHU21636XXSP,2013-06-16 05:39:00,
2013-06-15 22:40:00,59.2,47.5,30.00,ENE,67,0.0,0.0,65,0.00,,,0.00,WUHU21636XXSP,2013-06-16 05:40:00,
2013-06-15 22:44:00,59.2,48.0,30.00,ENE,67,0.0,0.0,66,0.00,,,0.00,WUHU21636XXSP,2013-06-16 05:44:00,
2013-06-15 22:45:00,59.2,48.0,30.00,ENE,67,0.0,0.0,66,0.00,,,0.00,WUHU21636XXSP,2013-06-16 05:45:00,
2013-06-15 22:50:00,59.0,47.8,30.00,ENE,67,0.0,0.0,66,0.00,,,0.00,WUHU21636XXSP,2013-06-16 05:50:00,
2013-06-15 22:51:00,59.0,47.8,30.00,ENE,67,0.0,0.0,66,0.00,,,0.00,WUHU21636XXSP,2013-06-16 05:51:00,
2013-06-15 22:55:00,59.0,47.8,30.00,ENE,67,0.0,0.0,66,0.00,,,0.00,WUHU21636XXSP,2013-06-16 05:55:00,
2013-06-15 22:56:00,59.0,47.8,30.00,ENE,67,0.0,0.0,66,0.00,,,0.00,WUHU21636XXSP,2013-06-16 05:56:00,
2013-06-15 23:00:00,59.0,48.2,30.00,ENE,67,0.0,0.0,67,0.00,,,0.00,WUHU21636XXSP,2013-06-16 06:00:00,
2013-06-15 23:01:00,59.0,48.2,30.00,ENE,67,0.0,0.0,67,0.00,,,0.00,WUHU21636XXSP,2013-06-16 06:01:00,
2013-06-15 23:05:00,59.0,48.2,30.01,ENE,67,0.0,0.0,67,0.00,,,0.00,WUHU21636XXSP,2013-06-16 06:05:00,
2013-06-15 23:06:00,59.0,48.2,30.01,ENE,67,0.0,0.0,67,0.00,,,0.00,WUHU21636XXSP,2013-06-16 06:06:00,
2013-06-15 23:10:00,58.8,48.0,30.01,ENE,67,0.0,0.0,67,0.00,,,0.00,WUHU21636XXSP,2013-06-16 06:10:00,
2013-06-15 23:11:00,58.8,48.0,30.01,ENE,67,0.0,0.0,67,0.00,,,0.00,WUHU21636XXSP,2013-06-16 06:11:00,
2013-06-15 23:15:00,58.6,47.8,30.01,ENE,67,0.0,0.0,67,0.00,,,0.00,WUHU21636XXSP,2013-06-16 06:15:00,
2013-06-15 23:16:00,58.6,47.8,30.01,ENE,67,0.0,0.0,67,0.00,,,0.00,WUHU21636XXSP,2013-06-16 06:16:00,
2013-06-15 23:20:00,58.6,48.2,30.01,ENE,67,0.0,0.0,68,0.00,,,0.00,WUHU21636XXSP,2013-06-16 06:20:00,
2013-06-15 23:21:00,58.6,48.2,30.01,ENE,67,0.0,0.0,68,0.00,,,0.00,WUHU21636XXSP,2013-06-16 06:21:00,
2013-06-15 23:25:00,58.3,47.9,30.01,ENE,67,0.0,0.0,68,0.00,,,0.00,WUHU21636XXSP,2013-06-16 06:25:00,
2013-06-15 23:26:00,58.3,47.9,30.01,ENE,67,0.0,0.0,68,0.00,,,0.00,WUHU21636XXSP,2013-06-16 06:26:00,
2013-06-15 23:27:00,58.5,48.1,30.01,ENE,67,0.0,0.0,68,0.00,,,0.00,WUHU21636XXSP,2013-06-16 06:27:00,
2013-06-15 23:30:00,58.3,48.3,30.01,ENE,67,0.0,0.0,69,0.00,,,0.00,WUHU21636XXSP,2013-06-16 06:30:00,
2013-06-15 23:32:00,58.3,48.3,30.01,ENE,67,0.0,0.0,69,0.00,,,0.00,WUHU21636XXSP,2013-06-16 06:32:00,
2013-06-15 23:35:00,58.3,47.9,30.01,ENE,67,0.0,0.0,68,0.00,,,0.00,WUHU21636XXSP,2013-06-16 06:35:00,
2013-06-15 23:37:00,58.3,47.9,30.01,ENE,67,0.0,0.0,68,0.00,,,0.00,WUHU21636XXSP,2013-06-16 06:37:00,
2013-06-15 23:40:00,58.3,48.3,30.01,ENE,67,0.0,0.0,69,0.00,,,0.00,WUHU21636XXSP,2013-06-16 06:40:00,
2013-06-15 23:41:00,58.3,48.3,30.01,ENE,67,0.0,0.0,69,0.00,,,0.00,WUHU21636XXSP,2013-06-16 06:41:00,
2013-06-15 23:42:00,58.1,48.5,30.01,ENE,67,0.0,0.0,70,0.00,,,0.00,WUHU21636XXSP,2013-06-16 06:42:00,
2013-06-15 23:43:00,58.1,48.5,30.01,ENE,67,0.0,0.0,70,0.00,,,0.00,WUHU21636XXSP,2013-06-16 06:43:00,
2013-06-15 23:46:00,58.1,48.5,30.01,ENE,67,0.0,0.0,70,0.00,,,0.00,WUHU21636XXSP,2013-06-16 06:46:00,
2013-06-15 23:47:00,57.9,48.3,30.01,ENE,67,0.0,0.0,70,0.00,,,0.00,WUHU21636XXSP,2013-06-16 06:47:00,
2013-06-15 23:48:00,57.9,48.3,30.01,ENE,67,0.0,0.0,70,0.00,,,0.00,WUHU21636XXSP,2013-06-16 06:48:00,
2013-06-15 23:51:00,57.9,48.3,30.01,ENE,67,0.0,0.0,70,0.00,,,0.00,WUHU21636XXSP,2013-06-16 06:51:00,
2013-06-15 23:52:00,57.9,48.3,30.01,ENE,67,0.0,0.0,70,0.00,,,0.00,WUHU21636XXSP,2013-06-16 06:52:00,
2013-06-15 23:53:00,57.7,48.1,30.01,ENE,67,0.0,0.0,70,0.00,,,0.00,WUHU21636XXSP,2013-06-16 06:53:00,
2013-06-15 23:56:00,57.7,48.1,30.02,ENE,67,0.0,0.0,70,0.00,,,0.00,WUHU21636XXSP,2013-06-16 06:56:00,
2013-06-15 23:57:00,57.7,48.1,30.02,ENE,67,0.0,0.0,70,0.00,,,0.00,WUHU21636XXSP,2013-06-16 06:57:00,
2013-06-15 23:58:00,57.7,48.1,30.01,ENE,67,0.0,0.0,70,0.00,,,0.00,WUHU21636XXSP,2013-06-16 06:58:00,